GFSNE_925_thetae_000.txt.gz
Theta_e
331 331 331 330 328 326 325 324 323 324 323 322 320 320 320 319 319 319 319 318 317 316 314 311 311 308 305 303 301 300 299 298 296 296 296 296 297 297
330 330 330 330 329 326 325 324 323 323 324 322 322 321 321 320 320 319 318 317 316 315 312 310 308 305 302 299 298 298 297 295 295 295 295 295 296 295
328 329 329 329 328 327 325 324 323 323 323 323 323 323 321 320 318 317 316 315 311 308 307 307 305 302 299 297 296 295 294 294 293 293 294 294 294 294
324 326 326 326 327 327 326 324 324 323 323 323 323 322 321 317 316 316 314 307 305 305 304 302 300 298 297 296 294 294 293 292 292 292 292 292 292 293
320 322 323 324 325 326 326 326 325 323 323 323 322 322 320 316 306 306 305 301 301 302 300 299 297 296 295 293 293 293 292 292 291 291 290 290 291 292
318 319 320 322 323 325 325 325 325 324 323 323 322 321 313 307 306 303 300 299 298 297 297 297 296 294 293 292 292 291 291 291 290 290 290 291 292 291
314 315 317 318 320 321 323 324 324 324 324 323 321 317 306 301 303 304 303 300 298 297 295 294 293 292 290 291 291 291 290 290 289 290 290 291 291 291
313 313 315 317 318 319 320 322 323 323 323 322 322 319 314 311 307 305 303 298 297 298 295 292 292 290 289 289 288 289 289 289 289 289 290 291 290 289
311 311 313 315 317 317 318 319 321 322 322 322 322 320 318 313 308 304 303 300 295 293 293 289 289 288 288 288 289 289 289 289 289 289 289 289 289 289
307 307 310 312 313 315 316 317 318 319 320 320 319 320 319 316 311 307 303 294 291 290 289 287 288 288 288 288 288 289 289 289 289 289 288 288 288 288
305 306 306 307 308 310 312 314 314 318 319 319 320 319 318 316 312 302 294 293 289 287 286 287 287 287 287 287 287 287 288 288 288 288 288 288 287 288
301 300 302 304 305 305 307 309 312 314 314 313 311 310 310 306 303 303 295 293 290 289 287 286 286 286 285 285 286 286 287 287 286 286 287 287 287 287
295 297 299 301 302 302 302 304 306 310 309 303 300 298 296 293 292 293 293 294 290 288 287 286 286 285 284 284 284 284 284 284 284 284 284 285 285 286
295 295 297 298 299 300 302 303 305 308 302 295 292 291 290 290 291 291 291 291 289 288 287 286 284 284 282 281 281 283 283 282 282 283 283 283 284 285
294 294 296 298 299 300 301 302 304 304 296 292 292 290 289 289 289 288 287 286 286 286 286 285 284 282 281 281 280 281 281 282 282 282 283 283 283 283
293 295 298 300 302 302 301 302 305 299 294 293 292 290 289 287 286 285 285 284 283 283 283 283 282 282 282 282 281 280 280 281 282 282 282 283 283 283
294 296 297 296 298 298 298 295 293 293 293 290 288 287 286 286 285 284 284 284 285 284 283 282 282 282 282 281 281 280 280 280 281 282 282 281 281 282
294 295 295 294 295 295 294 292 291 290 288 288 287 286 286 285 285 285 284 284 285 284 284 284 283 281 280 281 281 280 280 281 282 282 281 280 280 281
292 292 293 293 292 293 292 291 290 288 288 287 286 286 285 285 285 285 284 284 284 284 284 283 281 279 271 274 280 283 282 283 282 281 280 279 280 281
290 290 292 292 291 291 291 291 288 287 286 286 285 285 285 285 284 284 284 284 283 283 282 282 281 280 276 274 276 278 279 279 279 279 280 280 281 281
288 289 290 291 290 290 290 289 287 286 286 285 285 285 285 284 284 284 283 284 283 282 277 281 282 281 279 278 274 277 280 281 281 281 281 283 283 283
287 288 289 290 290 289 289 287 286 286 285 285 285 285 285 284 284 283 284 283 282 282 281 281 280 280 279 277 275 277 278 281 282 283 284 284 284 283
286 287 288 289 289 289 288 287 286 285 285 285 285 284 284 283 283 283 282 282 282 280 280 279 280 280 280 280 280 280 280 281 283 283 283 285 284 284

GFSNE_925_thetae_003.txt.gz
Theta_e
328 328 328 328 329 328 328 327 325 326 324 321 320 320 320 319 319 318 318 319 319 318 319 318 319 321 320 316 312 309 307 305 304 301 300 298 298 298
320 324 325 325 327 327 327 327 326 325 326 323 322 321 321 321 321 319 318 318 319 319 319 318 316 318 317 313 309 306 304 303 301 299 297 297 297 298
316 317 320 322 324 325 325 326 326 325 325 324 323 322 322 322 322 321 319 318 319 319 318 317 316 314 313 309 306 304 302 300 298 297 296 296 296 296
315 317 319 320 321 322 323 324 324 324 324 324 323 322 322 321 322 322 320 317 318 320 316 315 312 311 307 305 303 301 299 298 296 295 295 295 295 295
313 314 316 317 318 318 320 321 322 322 323 323 323 323 322 320 317 315 313 313 313 314 313 310 309 307 304 302 301 299 297 296 295 294 293 293 292 293
311 312 313 314 316 316 317 318 319 320 321 321 322 323 322 316 314 312 304 304 305 306 306 307 307 305 303 300 299 296 296 295 294 293 292 292 291 292
309 309 309 311 312 313 315 316 317 318 319 319 319 321 321 305 307 309 309 307 303 302 301 302 302 301 299 299 296 295 294 293 293 292 292 292 292 292
302 304 306 308 309 311 313 313 315 316 317 317 318 318 319 319 315 311 309 301 301 298 299 297 298 297 295 295 294 293 293 292 292 291 291 291 291 292
301 301 304 305 303 306 307 309 310 312 313 315 316 317 318 319 318 314 311 308 306 299 297 296 292 292 294 292 290 291 291 291 291 291 291 291 291 291
300 300 302 298 299 303 305 306 306 307 309 312 314 315 316 317 319 317 313 304 294 294 295 292 289 291 292 290 289 291 291 291 291 291 291 290 290 290
298 299 295 295 297 299 301 302 303 303 304 305 308 310 310 312 316 312 299 296 293 290 291 289 288 288 288 288 288 290 291 291 291 291 290 290 290 289
297 295 294 294 295 296 298 299 300 300 301 303 305 307 307 308 311 312 307 301 293 290 289 289 287 287 287 286 287 287 287 289 289 290 290 289 289 288
295 295 294 294 295 296 298 300 301 302 302 303 304 302 299 301 303 303 303 301 294 292 289 289 286 285 284 284 285 285 286 287 287 286 286 287 287 287
294 294 293 293 295 297 299 301 301 300 302 302 299 293 291 291 292 294 294 294 294 294 289 289 286 285 283 283 283 282 283 283 283 283 283 283 284 286
292 292 292 294 296 296 296 296 297 295 297 296 293 291 291 292 291 289 289 289 289 289 288 285 285 284 283 281 281 281 281 282 282 282 282 283 283 283
291 291 293 293 294 293 293 294 293 292 293 292 292 290 290 288 286 286 285 285 285 284 285 284 284 283 281 281 282 280 280 280 282 282 282 282 282 283
290 292 291 291 292 291 292 291 292 292 291 291 290 289 287 286 285 285 284 285 284 284 283 283 282 282 281 281 280 280 280 280 281 281 281 281 281 282
290 289 289 289 290 291 290 291 291 291 290 289 288 287 286 285 284 284 284 285 285 284 283 282 282 281 280 281 281 280 280 280 281 282 281 280 280 281
287 287 287 288 288 290 290 290 290 290 289 288 287 286 286 285 285 285 285 285 284 283 282 282 280 276 271 276 280 282 281 282 282 281 281 281 280 281
285 285 286 287 288 289 290 289 289 288 287 286 286 286 285 286 285 285 285 284 283 281 280 281 281 279 274 274 275 279 281 279 279 279 279 280 281 281
285 284 285 286 287 288 289 289 288 287 286 286 285 285 285 285 285 285 284 284 283 281 273 278 281 281 280 278 275 277 280 282 282 280 280 281 282 283
284 284 284 285 287 286 288 288 287 286 286 285 285 285 285 285 284 284 284 283 282 281 280 280 280 279 279 277 273 275 278 280 282 282 283 283 284 284
283 283 284 285 284 285 287 287 287 286 285 285 285 284 285 284 283 283 283 283 281 280 280 279 279 279 279 278 278 278 278 280 282 282 284 286 284 285

GFSNE_925_thetae_006.txt.gz
Theta_e
313 314 317 319 321 323 325 325 325 327 326 324 324 323 321 319 320 320 319 320 319 320 319 318 319 319 320 321 322 322 322 320 316 313 311 308 305 303
311 312 313 315 317 319 322 322 323 323 324 322 323 324 323 322 321 320 320 321 320 320 320 319 318 318 318 319 320 321 320 317 313 311 308 306 304 301
310 309 312 313 315 316 318 319 320 320 321 320 321 322 323 323 322 321 321 321 320 320 320 320 318 318 318 319 319 320 317 313 310 308 306 304 301 300
305 307 310 311 312 313 314 315 316 316 317 318 318 319 320 321 321 320 320 321 319 319 319 320 318 318 318 319 318 318 313 308 307 305 303 301 300 299
305 307 309 309 308 309 311 311 312 313 315 315 316 317 318 319 320 319 318 317 317 320 320 318 317 317 317 317 315 315 309 306 304 302 300 298 298 298
306 304 302 302 303 306 307 308 309 311 312 313 315 315 315 316 318 317 314 312 311 311 312 312 314 315 315 314 312 307 305 303 301 299 297 296 296 295
301 298 299 298 300 305 301 301 305 306 307 310 311 314 315 314 312 314 311 314 310 311 307 308 310 312 312 310 306 304 302 299 298 298 296 295 294 293
296 296 297 298 302 297 295 299 301 303 306 306 307 309 310 312 314 315 315 313 313 311 307 307 306 307 307 307 304 301 299 297 297 296 296 294 294 293
293 293 294 297 297 294 295 297 297 298 301 302 303 304 306 308 311 313 313 314 313 306 303 303 301 302 302 302 300 298 297 296 295 295 294 293 293 293
292 292 294 296 294 295 295 295 295 297 298 299 300 301 302 304 306 307 309 311 303 301 301 299 294 297 294 296 297 296 295 294 294 294 293 293 292 292
291 291 294 295 295 295 294 294 295 297 298 300 301 301 302 302 303 305 306 302 298 294 296 292 290 289 290 292 294 293 292 292 293 293 293 292 292 291
291 292 293 293 293 293 293 294 296 297 298 298 299 300 302 302 303 300 302 304 301 293 291 292 289 289 289 287 289 290 291 292 293 293 292 292 292 291
291 291 291 291 291 292 293 295 296 296 296 295 296 298 301 299 296 296 296 300 298 294 292 293 288 286 287 285 285 287 289 291 291 291 291 291 291 290
290 290 290 290 291 293 293 294 294 294 293 292 293 294 294 293 292 292 293 295 295 295 292 292 288 286 285 285 285 283 284 286 288 289 289 289 288 289
289 289 288 290 290 290 290 292 292 291 291 291 293 293 292 291 289 288 289 289 287 286 288 290 289 287 285 284 283 281 282 282 284 284 283 283 283 284
288 287 288 288 287 288 288 289 290 290 290 291 291 291 290 288 287 286 286 286 285 283 285 285 287 283 281 282 281 280 281 281 281 282 282 282 282 283
286 286 286 286 286 287 287 288 289 289 289 290 290 289 289 286 285 286 285 285 285 284 283 282 281 282 282 282 280 281 280 280 281 281 281 281 281 282
284 285 285 284 285 286 286 287 288 289 289 289 288 288 287 285 285 285 285 285 284 284 282 282 282 281 280 281 281 280 280 280 281 281 281 280 281 282
283 284 284 283 284 285 285 287 287 288 288 288 287 287 286 285 286 285 285 285 284 282 280 280 280 272 272 275 279 281 281 281 281 281 281 281 281 282
282 283 283 283 283 284 284 285 285 287 287 287 286 285 285 286 285 285 285 285 282 280 278 279 279 277 270 273 275 279 282 282 281 279 279 280 281 281
282 282 282 282 282 284 282 283 284 287 287 286 285 285 285 285 285 285 285 284 282 279 275 274 279 279 280 278 276 278 281 281 281 280 280 280 281 282
282 281 281 281 283 282 282 283 284 286 286 285 285 284 285 285 284 284 284 283 280 279 278 279 280 279 278 275 271 273 278 282 283 283 282 282 283 280
281 281 281 281 282 281 281 282 283 285 286 285 284 284 284 284 283 283 282 281 280 278 278 278 278 278 278 277 276 275 278 279 282 282 284 284 284 284

GFSNE_925_thetae_009.txt.gz
Theta_e
307 308 309 309 310 313 315 317 317 319 318 317 318 319 320 321 322 321 320 320 321 320 320 320 320 320 319 319 322 322 323 321 320 322 322 321 318 317
305 303 304 306 309 311 313 313 314 314 315 314 315 316 317 318 319 320 321 321 320 319 319 320 321 320 319 319 319 320 321 321 319 321 321 320 317 314
300 302 303 305 308 308 307 308 309 310 311 311 311 312 314 315 317 318 319 320 319 319 319 319 320 321 320 318 319 319 320 321 319 320 321 319 316 312
299 301 303 306 304 304 302 304 306 307 307 308 308 309 311 313 314 316 317 318 319 318 319 318 318 319 320 318 318 318 318 319 320 320 320 317 315 311
297 299 303 300 301 299 299 304 302 300 301 304 308 307 308 310 312 314 315 316 317 318 318 318 317 316 317 319 318 318 318 319 320 319 316 313 310 308
297 299 296 296 297 298 300 297 295 297 299 300 302 304 305 306 308 311 313 314 314 314 315 315 315 315 315 318 316 317 318 319 318 317 312 309 306 303
290 292 292 292 292 295 298 296 295 296 297 296 299 301 301 303 305 306 308 309 312 313 312 312 312 310 311 312 313 314 317 317 315 310 307 304 301 300
288 289 291 291 291 295 295 295 296 295 295 296 297 297 299 300 301 303 303 305 307 310 310 310 310 309 309 310 312 314 315 313 309 306 302 300 298 298
289 289 290 290 291 294 294 294 294 294 294 294 296 297 298 299 300 300 301 302 305 306 307 308 309 307 308 308 310 312 310 307 304 302 299 298 297 296
289 289 289 290 292 292 292 292 292 292 292 294 296 297 298 298 300 301 301 302 303 304 303 304 306 303 303 304 306 307 304 301 300 299 298 297 296 295
289 289 290 290 290 290 291 291 291 291 292 295 295 295 296 295 296 299 301 302 303 304 301 301 296 292 293 296 301 302 300 299 298 297 296 294 294 295
290 289 289 289 289 290 290 290 292 293 294 294 294 292 292 292 295 297 296 297 297 299 298 296 290 290 291 290 296 299 298 297 294 293 293 294 294 293
288 288 288 288 289 288 289 290 291 291 292 292 291 291 291 292 292 293 292 291 292 294 298 294 290 289 289 286 287 290 291 292 292 293 294 294 294 293
287 288 288 287 287 287 287 287 288 289 290 290 289 290 291 290 290 290 289 288 289 289 292 293 289 288 286 286 286 285 288 290 291 292 293 293 294 293
288 287 286 285 286 285 285 286 287 287 289 289 290 290 290 290 289 288 287 286 285 285 286 288 288 286 286 285 284 282 283 284 288 290 290 291 292 292
287 285 283 284 284 283 283 284 285 286 287 288 289 289 289 288 288 287 286 286 284 283 283 284 285 286 283 283 284 284 283 284 284 286 288 288 288 288
285 283 282 283 283 282 283 284 284 285 286 286 288 288 287 287 287 286 285 286 285 284 282 282 282 282 282 281 282 282 280 280 281 282 282 281 282 282
283 282 282 282 282 282 282 283 284 284 284 285 287 287 287 286 286 285 285 285 284 283 282 282 281 281 280 281 281 280 280 280 280 281 281 281 280 281
282 282 281 281 281 281 281 282 283 282 283 284 287 287 286 285 286 285 285 285 283 282 280 280 278 278 280 279 279 281 280 280 280 280 280 281 281 282
282 281 281 281 281 281 281 282 281 282 283 284 286 285 285 285 285 285 285 283 282 281 279 278 277 275 273 276 277 280 281 281 281 280 280 280 281 282
281 281 280 280 280 280 281 281 281 281 283 284 286 285 284 285 285 285 285 284 282 280 279 276 275 278 279 278 278 278 280 281 281 281 280 280 281 282
280 280 280 280 279 280 281 280 280 281 282 284 285 284 284 284 284 284 283 282 281 280 277 276 277 278 278 274 272 272 278 280 281 281 281 282 282 281
279 279 279 279 279 280 280 280 280 280 282 284 284 283 283 282 283 282 281 280 279 277 277 276 277 277 277 276 273 272 277 279 281 282 282 283 283 284

GFSNE_925_thetae_012.txt.gz
Theta_e
302 299 299 301 302 304 307 309 309 309 308 307 308 309 311 312 313 313 315 316 317 319 318 319 319 319 319 320 321 322 322 324 324 323 322 323 323 323
294 295 297 300 301 304 305 305 304 306 306 304 304 305 306 307 308 310 311 312 313 313 316 318 318 318 318 319 320 320 320 320 321 323 321 322 321 322
292 293 295 297 301 300 302 299 298 301 304 303 299 298 299 303 307 309 309 310 313 314 314 314 317 318 318 318 318 319 320 320 320 321 322 322 321 322
292 294 296 298 295 296 296 294 297 301 296 296 296 297 299 299 302 304 306 307 309 312 313 314 315 316 317 317 318 318 318 319 319 320 321 322 320 321
292 291 289 291 291 291 292 292 296 297 295 295 296 297 296 296 300 301 301 302 306 308 309 311 312 311 313 315 316 317 317 317 318 318 317 321 321 321
289 288 287 288 289 291 291 292 296 295 295 295 295 295 295 296 297 298 298 299 301 303 305 305 309 311 312 312 313 314 315 316 317 317 316 318 320 321
288 288 288 288 289 290 291 292 293 294 294 294 294 293 294 294 295 296 298 299 300 299 301 303 306 309 310 310 310 310 312 314 315 314 315 317 319 320
288 288 288 288 289 290 290 291 291 292 292 292 292 292 292 292 294 297 298 298 299 299 301 302 302 305 306 307 308 308 310 311 312 313 314 317 318 316
288 288 288 289 289 289 289 290 290 290 290 290 291 291 291 293 295 295 295 296 297 298 299 300 301 302 304 304 306 307 309 310 311 312 314 315 311 308
288 288 288 289 289 288 289 289 289 289 289 290 291 292 292 294 294 294 295 294 295 297 299 301 302 302 303 303 303 305 305 306 308 311 312 308 305 302
287 288 289 288 287 288 289 288 288 289 288 289 290 291 292 291 291 292 292 293 295 295 295 298 300 301 297 297 299 301 302 306 309 306 302 300 300 298
287 288 287 287 287 287 287 287 287 286 287 288 289 289 289 289 290 290 291 292 292 292 295 296 298 293 294 290 293 301 305 304 302 301 299 298 297 295
287 286 286 287 287 285 285 286 285 286 287 287 287 288 288 289 289 289 290 290 290 290 290 292 293 291 291 289 289 293 300 300 300 299 297 295 294 293
286 285 286 286 284 284 284 284 284 285 284 285 285 287 287 288 288 289 288 288 287 286 285 284 287 291 288 287 288 288 291 292 292 293 293 294 294 292
285 286 284 283 282 282 282 283 283 282 283 284 285 286 286 287 288 287 287 287 286 285 283 283 285 287 287 286 285 284 286 287 291 292 292 294 294 292
286 285 283 282 281 281 281 281 281 282 283 284 284 284 284 286 287 287 287 286 285 284 283 282 283 285 283 284 285 285 285 285 287 290 291 291 292 292
284 283 282 281 281 281 281 281 280 281 283 282 282 283 284 286 286 286 286 285 285 284 283 282 281 282 283 283 283 283 282 283 285 286 287 284 286 288
281 281 281 280 280 280 280 280 280 281 282 281 282 282 283 286 285 286 285 285 284 283 282 281 281 281 281 282 282 281 281 281 281 284 285 282 281 284
280 281 280 280 280 280 280 280 279 280 281 281 281 283 284 285 285 285 285 284 283 281 279 279 278 279 282 281 280 281 280 280 280 280 281 281 281 282
280 280 280 279 279 280 279 279 279 280 280 281 281 282 285 284 284 285 285 283 282 281 280 278 277 276 278 280 281 280 281 280 280 280 280 281 281 282
279 279 279 279 279 279 279 279 280 280 281 280 281 283 284 284 284 285 285 284 282 281 280 278 275 276 277 278 280 278 281 281 282 281 280 280 280 281
279 279 279 278 279 279 278 279 279 279 280 280 281 283 283 283 283 283 282 282 281 279 277 277 278 278 277 276 274 273 278 280 281 281 282 283 282 281
278 278 278 278 278 278 278 279 279 279 280 280 282 283 282 282 282 281 281 280 279 277 277 277 277 277 275 275 274 273 277 279 281 281 282 282 284 286

GFSNE_925_thetae_015.txt.gz
Theta_e
294 292 293 294 297 299 301 303 303 304 301 298 299 300 303 303 300 297 301 306 308 309 310 311 314 315 316 317 318 318 319 319 322 324 324 324 323 323
291 291 293 294 296 298 297 297 299 297 298 297 298 301 299 298 296 298 298 297 300 304 306 307 310 312 314 315 317 317 318 319 319 321 323 323 324 324
290 291 292 292 290 290 293 293 293 292 296 295 298 298 297 295 296 296 296 296 301 304 304 304 305 309 311 313 315 315 317 318 319 319 320 322 323 323
290 292 290 289 288 289 289 290 291 291 293 296 297 295 294 295 296 295 295 298 299 299 300 304 303 302 304 309 311 312 313 315 317 318 318 321 320 321
289 289 288 288 288 288 289 290 291 291 292 294 294 294 294 294 294 294 294 295 296 297 298 299 302 303 302 303 305 311 313 314 315 316 316 316 318 319
288 288 288 288 288 289 290 291 291 291 291 292 292 293 293 292 292 292 293 293 295 296 297 299 299 299 301 304 306 309 310 311 312 312 314 315 316 317
287 287 287 288 288 289 290 290 290 290 290 291 291 292 292 291 292 291 291 292 295 296 296 296 298 300 302 301 302 306 308 308 308 309 310 314 315 316
287 287 287 287 288 289 288 289 289 289 290 290 290 291 290 291 291 292 293 293 295 295 295 296 296 297 299 299 300 302 304 306 307 307 308 310 311 314
286 287 287 287 288 288 288 288 289 288 287 288 289 289 289 289 290 291 292 292 293 293 294 293 293 296 297 299 300 301 303 304 305 305 307 309 310 312
286 286 287 287 287 287 287 289 287 286 286 287 287 287 288 288 289 290 291 291 291 292 292 294 295 295 296 300 301 302 303 302 302 303 304 306 308 310
286 286 287 286 286 287 289 286 285 286 285 285 286 287 287 287 288 289 290 291 291 291 292 292 292 294 296 298 299 299 299 298 300 301 303 305 308 311
286 287 285 285 286 288 286 285 285 285 285 286 285 284 285 285 287 288 289 290 290 290 290 291 291 291 294 294 294 296 298 302 304 303 306 307 305 303
286 286 285 285 287 285 284 283 283 285 284 283 283 284 284 285 286 286 288 288 289 289 288 289 289 289 290 292 291 294 295 301 305 304 302 299 299 298
285 285 285 287 284 283 282 282 283 283 281 281 282 283 284 284 284 284 285 286 288 287 288 286 285 286 289 290 291 290 292 295 299 299 296 296 295 294
285 285 284 283 283 282 281 281 281 281 281 282 283 283 283 283 283 284 285 287 286 286 286 283 282 283 284 289 290 289 288 289 292 293 293 292 292 292
285 282 281 281 282 281 280 280 280 280 281 281 281 282 282 282 283 284 286 286 286 286 284 282 282 282 286 288 289 289 286 289 289 290 290 292 292 292
282 281 280 281 280 280 280 280 280 280 281 280 281 282 282 282 283 284 286 286 287 287 285 283 282 283 284 285 287 286 286 286 287 288 288 286 289 291
281 280 280 281 280 280 280 280 280 280 280 280 281 281 282 282 283 285 285 286 286 284 283 282 281 284 284 283 283 284 283 284 284 286 287 285 284 287
280 279 279 279 279 279 279 279 279 279 279 280 281 281 281 282 285 285 286 285 284 282 281 280 279 280 285 284 282 281 283 282 283 283 285 285 285 284
279 279 279 279 279 279 279 279 279 279 279 280 280 280 281 284 285 286 284 284 284 282 281 279 278 278 282 283 283 281 281 283 284 283 282 282 282 282
279 279 278 278 278 278 278 278 279 279 280 279 280 281 283 283 284 284 284 285 283 282 281 279 276 277 277 279 282 281 281 281 282 282 282 282 283 282
278 278 278 278 278 277 278 278 278 279 279 279 280 281 282 282 282 282 282 282 281 280 279 277 278 278 279 282 281 280 281 281 281 282 283 283 285 285
278 277 277 277 277 277 277 278 278 278 279 279 280 282 282 282 281 280 280 280 281 280 279 281 280 279 278 280 281 282 281 282 282 283 284 285 286 285

GFSNE_925_thetae_018.txt.gz
Theta_e
292 293 293 293 294 295 295 296 299 299 300 298 297 294 294 295 296 300 299 298 297 298 298 299 301 304 307 309 309 310 313 314 317 318 320 319 318 325
291 291 292 292 293 293 291 291 293 294 296 294 294 292 293 294 297 297 296 295 296 297 296 296 299 303 303 302 307 310 311 312 314 317 319 320 320 315
290 291 291 292 291 290 290 290 290 291 295 293 293 293 293 293 294 294 294 295 295 295 295 299 297 299 301 304 302 304 308 311 314 316 317 319 321 320
290 290 290 290 289 289 289 289 290 291 292 294 292 292 292 292 293 293 293 293 293 293 293 294 295 297 299 300 303 304 303 305 307 312 313 315 318 319
289 289 289 289 289 289 289 290 290 291 291 291 292 291 292 292 292 292 292 292 292 292 293 293 294 296 298 300 300 299 302 304 304 306 311 313 314 316
289 289 288 288 288 288 289 289 290 290 290 290 291 291 291 291 291 292 292 291 292 292 293 294 295 296 298 296 299 300 303 302 304 309 310 312 313 312
288 288 287 287 288 288 289 289 289 289 290 291 291 290 290 290 291 290 291 291 291 291 293 294 295 296 296 296 297 298 300 300 303 305 307 307 308 309
287 287 287 287 287 288 288 288 288 289 289 290 290 290 289 289 289 289 289 291 291 290 293 293 293 293 294 295 295 297 299 300 301 303 305 306 307 307
287 286 287 287 287 287 287 287 288 289 288 287 288 288 288 288 288 289 289 290 291 290 291 292 292 293 293 294 295 297 298 299 301 302 304 304 305 305
286 286 286 287 287 287 287 288 289 287 286 286 285 286 287 287 287 287 288 289 289 290 291 293 292 292 293 294 293 296 298 299 302 303 303 303 302 303
286 286 286 287 286 286 287 288 287 286 284 284 285 286 285 285 285 287 288 289 291 291 291 291 291 292 292 292 291 294 296 297 298 299 300 301 302 303
286 286 286 286 285 286 287 285 285 284 284 285 285 284 283 284 285 285 286 288 289 289 290 289 290 290 291 292 293 292 293 294 295 296 299 300 301 303
286 286 285 285 286 285 284 284 284 284 284 283 283 283 283 284 284 285 285 285 286 287 286 287 289 289 290 291 289 291 292 293 294 301 306 306 305 305
285 285 285 285 283 283 283 283 283 283 282 282 282 283 283 283 283 284 283 283 284 285 286 286 287 288 289 289 290 289 292 292 294 297 298 300 300 302
284 285 285 283 282 282 283 282 282 281 282 282 283 283 282 282 282 283 284 284 285 285 287 287 286 285 285 287 288 289 292 291 293 293 293 294 296 297
285 284 282 282 281 281 281 281 281 281 281 282 282 282 282 282 283 283 284 285 286 287 288 285 284 283 285 285 287 290 290 290 289 291 291 291 292 293
283 282 281 281 281 281 281 281 281 281 281 281 281 281 282 282 283 283 284 285 288 288 286 285 283 283 284 285 289 290 289 288 289 290 290 290 290 290
281 281 281 280 281 280 280 280 280 280 280 280 280 281 282 282 283 284 286 287 286 285 283 282 282 284 286 285 284 287 287 287 288 289 290 290 289 290
280 280 280 280 280 280 280 280 280 280 279 280 280 281 281 282 284 286 285 285 285 284 283 281 281 282 288 286 284 283 286 286 287 288 288 288 288 290
280 280 280 279 279 279 279 279 279 279 279 280 280 280 281 282 284 285 285 286 285 283 283 281 280 279 282 284 283 283 284 286 285 285 285 284 285 289
279 279 279 279 279 279 279 279 278 279 280 279 280 280 281 283 284 283 283 283 283 282 282 282 279 279 279 281 284 283 283 284 285 285 285 286 285 285
279 279 278 278 278 278 278 278 278 278 279 279 280 281 283 283 283 282 281 282 283 282 282 282 282 282 283 284 283 283 283 284 285 284 285 285 286 286
278 278 278 278 278 278 278 278 278 278 279 280 281 282 283 282 281 281 281 283 284 284 283 284 283 282 283 284 284 283 284 284 285 286 286 286 285 285

GFSNE_925_thetae_021.txt.gz
Theta_e
292 292 292 293 293 293 295 294 294 294 293 293 293 292 294 293 293 294 294 295 296 297 296 296 297 299 297 298 301 303 304 302 307 310 312 314 316 318
291 291 292 292 292 293 293 292 292 292 292 292 292 292 292 293 292 293 293 293 293 293 295 295 296 296 295 297 299 299 301 303 304 304 307 312 315 317
290 291 291 291 291 291 291 291 291 291 292 292 292 292 292 291 292 292 292 293 293 293 293 293 294 293 293 294 295 297 298 300 301 305 305 308 313 315
290 290 290 290 290 290 290 290 290 290 290 292 291 291 291 291 291 292 291 291 291 291 292 292 292 293 294 294 295 296 299 300 301 299 302 304 307 313
289 289 289 290 289 289 289 289 289 290 290 290 290 290 290 291 291 290 289 289 291 291 291 291 292 292 294 294 296 297 297 300 299 301 303 305 308 309
288 288 289 289 288 288 288 289 289 290 289 290 290 290 290 290 290 288 288 289 290 289 289 289 290 291 292 294 296 297 297 297 297 299 301 302 307 310
288 288 288 288 288 288 288 289 288 289 289 289 290 290 290 288 288 288 288 288 288 288 289 290 290 291 292 292 293 293 294 295 296 298 300 302 303 306
287 288 287 287 287 287 288 288 288 288 288 288 289 290 287 287 286 287 287 288 288 287 288 289 289 290 291 292 292 294 294 295 295 298 300 301 302 303
287 287 287 287 287 287 287 287 287 287 288 287 287 287 286 285 286 287 287 287 287 287 287 289 289 291 291 292 292 292 294 294 295 297 298 299 301 302
286 286 286 286 287 287 287 287 288 287 286 285 286 285 285 286 286 286 286 286 287 287 288 289 290 289 291 291 291 290 292 293 294 294 297 300 302 303
286 286 286 286 286 287 287 287 285 285 284 284 285 285 284 285 285 285 285 286 286 287 287 287 288 289 288 289 289 290 292 291 293 295 297 298 299 300
286 286 286 285 286 287 286 285 284 284 285 284 284 283 283 283 283 284 284 285 285 286 285 285 286 287 288 289 290 289 289 289 291 293 294 295 296 298
286 286 285 285 286 286 284 283 283 285 283 283 282 283 283 283 283 283 283 283 284 284 284 285 285 286 287 288 288 288 288 289 290 291 294 298 299 300
285 285 285 286 284 283 283 282 283 283 282 282 282 283 283 282 282 282 282 282 283 284 284 284 285 286 287 288 287 287 287 287 291 291 294 303 305 303
284 284 286 283 282 282 281 282 282 281 282 282 282 282 282 281 281 282 282 283 284 284 285 285 286 287 286 285 285 285 287 289 290 291 291 295 298 301
284 285 282 282 281 281 281 281 281 281 281 282 281 281 281 281 282 282 283 283 284 285 287 287 285 284 284 285 286 285 287 290 290 290 291 291 293 295
284 282 281 281 281 281 281 280 280 281 281 280 280 280 281 281 282 282 283 285 286 285 284 283 282 283 284 285 286 287 290 289 290 290 291 291 291 293
282 281 280 280 280 280 280 280 280 280 280 280 280 280 281 281 281 283 285 286 285 284 283 282 281 282 285 285 285 287 288 289 290 290 291 291 291 291
280 280 280 280 280 280 280 280 280 279 279 279 279 280 280 281 282 284 284 284 285 284 283 282 281 281 286 285 284 285 287 288 288 288 289 290 290 291
280 280 280 279 279 279 279 279 279 279 279 279 280 280 281 282 283 284 283 283 283 283 283 282 280 280 281 283 284 284 287 287 287 287 288 290 290 292
279 279 279 279 279 279 279 279 279 279 279 279 279 280 281 282 283 283 282 283 285 283 283 283 281 281 282 283 284 284 285 286 287 287 287 288 289 290
279 278 278 278 279 279 279 278 278 278 279 279 280 281 282 283 283 283 282 282 284 284 284 284 283 284 284 283 284 285 286 285 286 287 287 287 287 288
278 278 278 278 278 278 278 278 278 278 279 280 281 282 282 281 282 283 283 283 285 285 284 285 284 284 284 284 284 284 286 286 287 286 286 286 288 288

GFSNE_925_thetae_024.txt.gz
Theta_e
290 290 290 291 291 291 291 291 292 292 291 290 290 290 290 290 291 292 291 291 292 292 293 293 294 294 295 296 296 297 297 297 298 300 302 303 307 308
289 289 289 290 290 290 290 290 290 290 290 290 290 289 289 290 290 290 290 290 290 292 292 292 292 293 293 294 294 295 294 295 296 297 299 300 303 305
288 288 289 289 289 290 289 290 289 289 289 289 288 288 290 289 289 289 289 290 291 290 289 289 290 291 292 293 293 293 295 296 296 297 298 300 301 305
287 288 288 288 288 289 289 288 288 288 288 288 289 289 288 288 288 288 289 290 290 288 288 288 290 291 290 291 292 293 292 294 295 296 299 300 301 301
287 287 287 287 288 288 288 288 287 288 288 289 288 288 288 288 288 289 289 288 287 287 286 287 288 289 289 290 291 292 293 293 294 296 297 298 299 301
286 286 287 287 288 287 287 288 288 288 288 288 288 288 288 288 288 288 287 286 285 285 286 286 288 288 288 289 290 291 291 293 294 294 295 297 297 299
286 286 286 287 287 287 288 288 288 287 288 289 288 287 288 286 286 286 285 284 285 285 286 287 286 286 287 287 288 289 291 292 293 294 295 296 297 298
285 286 286 286 286 286 287 286 287 288 288 287 287 287 285 285 285 285 284 285 286 286 285 285 285 286 287 288 288 291 292 293 293 293 294 295 297 298
286 285 285 286 285 285 286 287 287 287 287 286 285 284 284 285 285 285 285 285 286 285 285 285 286 286 287 287 287 288 290 292 291 291 293 294 295 296
285 285 285 285 286 286 286 287 287 286 285 284 284 284 285 285 285 284 284 284 284 284 284 285 285 286 285 286 287 287 288 289 290 293 293 294 295 295
285 285 285 285 285 286 286 287 285 284 283 283 285 285 283 283 283 283 283 284 284 284 283 283 284 284 284 284 285 286 288 289 289 291 291 294 296 297
285 285 285 285 285 286 286 285 284 283 283 284 282 281 281 282 282 282 283 283 283 283 283 283 283 283 284 285 285 286 286 288 288 289 290 291 294 295
285 285 284 284 286 285 284 283 283 284 283 281 281 281 281 282 282 282 282 282 282 282 282 283 284 284 284 285 285 286 287 287 286 287 288 290 292 294
284 284 283 285 284 283 282 282 283 282 280 280 281 282 281 281 280 280 281 281 281 282 282 283 283 284 284 285 286 285 285 285 285 287 289 290 292 294
283 284 285 283 282 281 281 281 281 280 280 281 281 281 280 280 280 280 281 282 282 283 283 284 284 285 285 284 283 284 285 285 286 288 290 290 294 303
284 284 282 281 280 280 280 280 279 280 280 281 280 280 280 280 280 281 281 282 283 285 284 283 282 282 283 284 284 285 285 287 289 290 291 292 295 298
283 281 280 280 279 279 279 279 279 280 280 280 280 279 280 280 280 281 282 283 283 285 284 283 281 281 281 283 284 285 287 288 289 291 291 292 292 295
281 279 279 279 279 279 279 279 279 280 279 279 279 279 280 280 280 282 282 283 283 283 283 283 281 280 283 284 285 285 287 288 289 291 291 293 292 294
279 279 279 279 279 279 279 279 279 279 279 279 279 279 279 280 281 282 283 283 282 283 283 282 281 280 282 283 284 287 287 288 290 290 291 292 291 291
279 279 279 278 278 279 279 279 279 278 278 279 279 279 280 280 281 282 283 282 283 284 283 283 282 281 280 281 282 286 287 288 290 290 291 291 292 292
278 278 278 278 278 278 278 278 278 278 279 278 279 279 280 281 282 282 283 283 284 284 284 283 283 284 284 284 285 286 287 288 288 288 290 291 291 292
277 277 278 278 278 278 278 278 278 278 278 279 279 280 281 282 281 281 283 283 283 285 284 284 284 284 284 285 285 286 286 287 289 289 289 289 289 291
277 277 277 277 277 277 277 277 278 278 278 279 280 281 282 281 281 281 283 284 284 285 285 284 284 284 284 285 286 286 286 286 286 287 289 290 291 290

GFSNE_925_thetae_027.txt.gz
Theta_e
288 288 287 287 288 289 289 289 290 290 289 289 289 288 289 288 288 289 289 289 288 289 290 291 292 293 293 292 292 293 294 295 296 297 298 297 297 299
287 287 287 287 287 288 288 288 288 289 289 288 288 288 287 287 288 288 288 288 288 288 289 290 291 292 291 291 291 291 293 294 295 295 296 295 297 299
286 286 286 286 287 287 287 287 288 288 287 288 287 287 287 288 288 287 288 287 287 288 290 290 291 290 290 289 289 292 292 292 293 294 295 297 298 299
287 286 286 286 286 286 287 287 287 287 287 287 287 288 288 287 287 288 287 287 288 288 288 288 288 287 288 288 289 290 290 291 292 292 293 293 294 297
286 286 285 285 286 286 286 287 287 287 288 288 288 287 287 288 287 287 286 286 286 286 285 285 285 286 287 288 289 289 289 290 291 292 293 293 294 296
286 285 285 285 286 286 286 287 287 287 287 286 287 288 287 287 286 285 284 284 284 285 284 284 285 286 287 287 286 287 288 289 290 290 291 292 295 296
286 286 285 285 286 286 286 286 286 286 287 288 287 287 286 284 284 284 283 284 285 284 284 285 285 286 284 284 285 286 287 288 289 291 292 293 294 295
286 285 285 285 285 285 285 286 286 287 287 287 287 285 284 284 283 283 284 285 285 284 285 284 284 284 284 284 285 286 288 289 288 289 290 293 294 295
286 285 285 285 285 285 285 286 286 287 287 286 285 284 284 283 284 285 284 284 284 284 283 283 283 283 284 284 284 286 287 287 288 290 290 292 292 292
285 285 285 285 285 285 285 286 286 286 285 284 284 283 284 284 284 283 283 283 283 283 283 283 283 283 283 283 284 285 285 286 288 289 290 291 292 293
285 285 285 284 284 284 285 286 284 283 282 283 284 284 282 282 282 282 283 282 282 282 282 282 282 282 282 282 282 283 285 287 288 290 289 290 291 292
285 284 284 283 284 286 285 284 282 282 283 283 280 280 280 281 282 281 281 281 281 281 281 281 282 282 283 283 284 284 285 285 286 287 289 289 289 290
284 284 283 283 286 284 283 281 281 283 282 280 280 280 280 281 280 280 280 280 281 281 281 282 283 283 283 283 284 284 285 285 286 286 286 287 288 289
284 283 283 285 282 282 281 281 282 282 279 279 280 281 280 280 280 280 280 280 280 281 282 282 283 283 283 284 284 284 284 284 284 284 285 286 288 290
283 284 283 281 280 280 280 280 280 279 280 280 280 280 280 280 280 280 280 281 281 282 283 284 284 283 281 282 283 283 285 285 286 286 286 288 288 289
283 281 280 279 279 279 279 279 279 279 280 280 280 279 279 279 280 280 280 281 282 283 283 283 283 283 281 280 282 283 284 286 287 288 290 291 293 295
282 279 279 279 279 279 279 279 279 279 280 279 279 279 279 280 280 280 280 282 282 283 282 283 282 281 281 280 282 284 285 286 288 290 290 292 294 296
280 279 278 278 278 278 279 279 279 279 279 279 279 279 279 279 280 281 281 282 283 282 283 283 282 281 281 284 284 285 287 287 290 291 291 292 293 295
278 278 278 278 278 278 278 278 278 278 278 278 278 279 279 279 280 281 282 282 283 283 284 283 282 281 281 283 283 287 287 288 291 291 291 291 292 294
278 278 277 277 278 278 278 278 278 278 278 278 279 278 279 279 280 281 281 282 284 284 284 283 283 283 281 282 281 286 289 289 288 291 291 291 291 292
277 277 277 277 278 277 277 277 277 277 278 278 278 279 279 280 281 281 281 283 285 284 283 283 283 285 285 286 286 287 288 290 290 290 291 292 292 293
276 277 277 277 277 277 277 277 277 277 277 277 278 279 280 281 282 281 281 282 283 284 284 283 285 285 285 286 286 286 287 289 290 290 291 291 292 293
276 277 277 276 276 276 276 276 276 277 277 277 278 279 280 282 283 282 282 283 283 284 284 284 284 285 285 286 286 286 286 288 289 290 290 291 292 291

GFSNE_925_thetae_030.txt.gz
Theta_e
287 287 286 286 286 286 286 287 287 287 287 287 288 288 287 287 287 287 287 288 288 289 289 289 289 290 291 292 293 294 294 293 294 293 294 295 296 297
286 287 286 286 286 285 286 286 286 287 287 287 287 287 287 287 287 287 288 288 287 287 288 288 289 290 291 292 292 293 293 292 291 291 293 296 297 298
287 286 286 286 285 285 285 285 286 286 286 287 286 287 287 287 287 287 287 287 287 287 287 287 287 288 289 289 291 290 289 290 291 292 293 295 295 296
287 286 286 285 285 285 285 285 285 286 286 286 287 287 287 286 286 286 287 287 286 286 285 286 286 287 287 287 288 288 288 289 290 291 292 293 293 294
286 286 285 285 285 285 285 285 286 286 286 286 286 286 286 286 287 286 285 284 284 283 284 284 285 285 286 286 287 288 289 290 290 289 290 290 292 293
286 286 286 285 285 285 285 286 286 285 285 286 286 287 287 286 286 284 283 283 283 283 283 284 285 285 285 286 286 287 287 286 287 288 289 290 290 291
286 286 285 285 286 286 286 286 285 286 286 287 286 286 286 284 284 283 283 283 283 284 284 283 283 284 284 284 284 284 284 285 286 287 288 290 291 291
285 285 285 285 285 285 285 285 285 286 286 286 287 285 284 283 283 283 283 284 283 283 283 283 283 283 282 283 283 284 285 286 287 288 289 290 290 290
285 285 284 284 284 284 284 284 285 285 286 284 284 283 283 283 283 284 283 282 283 282 282 283 282 282 282 282 283 284 284 285 286 286 289 289 289 290
284 284 284 284 284 284 284 285 285 283 283 282 282 283 284 283 282 282 282 282 282 282 281 282 282 282 281 281 282 283 284 285 286 286 287 288 289 289
284 284 284 284 283 284 287 284 283 282 281 282 283 282 281 281 281 282 282 282 281 281 280 281 281 281 281 281 281 282 284 285 286 287 288 290 290 291
284 285 284 283 284 286 284 283 281 281 282 283 280 279 280 280 281 281 281 281 281 281 281 281 281 281 282 283 283 283 283 284 285 286 287 288 289 290
284 284 283 283 284 283 282 281 281 283 282 279 279 280 280 280 280 280 280 280 280 280 280 282 282 282 282 283 283 283 283 283 283 284 285 287 288 289
284 283 283 283 282 281 281 281 282 281 279 279 280 280 280 280 280 280 280 280 280 280 281 281 282 283 283 283 283 282 281 282 283 284 284 285 286 288
283 283 282 281 280 279 279 280 280 279 279 280 280 280 279 279 279 279 280 280 280 280 281 282 283 282 283 283 282 281 282 282 283 284 286 286 286 286
283 281 280 279 279 279 278 279 278 279 279 280 279 279 279 279 279 280 280 280 280 282 282 283 283 283 282 281 280 280 281 283 285 286 287 289 289 287
281 279 278 278 278 278 278 278 278 279 279 278 278 278 279 279 279 279 280 281 281 282 283 283 283 283 282 281 280 282 283 285 287 289 290 291 293 291
279 278 278 277 278 278 278 278 278 278 278 278 278 278 278 279 279 280 280 281 282 282 284 284 283 282 282 284 284 283 288 288 289 290 291 292 293 294
278 277 277 277 277 277 278 278 277 277 277 277 277 278 278 278 279 280 280 281 281 284 284 283 283 283 283 283 284 287 289 290 290 291 291 291 292 293
277 277 277 277 277 277 277 277 277 277 277 277 278 277 278 278 279 280 281 281 283 284 284 283 283 285 284 283 282 285 289 290 290 291 291 292 291 292
276 276 276 277 277 277 276 276 276 276 277 277 277 277 278 278 279 280 282 283 284 283 284 283 284 286 286 286 286 288 289 290 290 290 291 292 292 291
276 276 276 276 276 276 276 276 276 276 276 276 277 277 278 279 280 281 283 282 283 283 284 284 285 285 285 286 286 287 289 290 290 290 291 290 291 291
275 276 276 276 275 275 275 275 275 276 276 276 277 277 278 279 280 283 283 283 284 284 284 283 285 285 285 285 286 288 289 289 290 290 289 290 291 291

GFSNE_925_thetae_033.txt.gz
Theta_e
286 286 286 286 286 285 285 285 285 285 285 286 286 286 286 286 286 287 287 287 287 288 289 289 289 289 290 291 291 292 293 294 295 295 296 297 296 296
286 286 286 286 285 285 285 284 285 285 285 285 285 286 286 286 286 286 286 287 287 287 287 288 288 288 289 289 289 290 290 293 293 294 295 295 295 295
286 286 286 286 285 285 285 284 284 285 285 285 285 285 286 285 285 285 286 286 286 287 287 287 286 286 287 288 289 289 290 290 291 292 293 293 293 294
287 286 286 286 285 285 285 284 284 284 284 285 286 285 285 285 285 285 286 286 286 285 285 285 285 286 286 287 288 288 288 289 289 290 290 290 291 293
286 286 285 285 285 285 285 284 284 285 286 285 285 285 285 286 286 286 285 284 283 283 283 284 284 285 285 286 287 287 288 288 289 289 290 291 291 292
286 285 285 285 285 285 285 285 286 285 285 285 285 286 285 285 284 283 283 283 283 283 283 283 284 284 284 284 285 285 286 286 287 287 288 288 289 289
285 284 284 284 285 285 285 285 285 285 285 285 285 285 283 283 282 282 282 283 283 283 283 282 282 282 282 282 283 283 284 284 285 286 286 287 288 289
284 284 284 284 284 284 284 284 285 285 286 286 283 283 282 282 282 282 283 284 282 282 282 282 282 282 282 282 282 283 284 285 286 287 288 288 289 289
284 284 284 283 284 284 283 284 285 285 284 283 282 281 281 282 283 283 282 282 282 282 282 282 282 281 281 281 282 283 284 285 285 286 287 287 288 288
284 284 283 284 284 284 285 286 283 282 282 282 282 282 283 283 282 282 282 282 282 281 281 281 281 281 281 281 281 282 283 284 285 286 286 287 288 288
284 284 284 284 283 284 285 283 282 281 281 282 283 282 281 281 282 282 282 281 281 281 280 280 281 281 281 281 281 282 283 284 285 285 286 288 289 289
285 284 283 283 284 285 283 282 281 280 282 283 280 279 279 280 281 281 281 280 280 280 280 280 280 281 282 282 283 282 282 283 284 284 285 286 287 288
283 283 283 283 284 283 282 281 281 283 281 279 279 279 280 280 280 280 280 280 280 280 280 281 281 281 281 282 282 283 283 283 282 282 283 285 286 287
284 283 283 283 282 281 280 281 282 281 278 279 279 280 279 279 279 279 279 279 280 280 280 280 281 281 282 282 283 283 283 283 282 282 282 283 285 286
283 283 282 281 280 279 279 280 280 278 278 279 279 279 279 278 278 279 279 280 280 280 281 281 281 282 282 283 283 282 283 283 282 282 282 283 284 285
282 281 280 279 278 278 278 278 278 278 279 279 278 278 278 278 278 279 279 279 280 281 282 283 283 283 283 283 283 282 282 283 283 284 285 286 286 286
281 279 277 277 277 277 277 277 278 278 278 277 277 277 277 277 278 279 279 280 280 281 282 283 284 283 283 283 282 284 285 286 289 289 290 291 291 289
279 277 277 277 277 277 277 277 277 277 277 277 277 277 277 278 278 279 279 280 281 282 283 284 283 283 284 285 285 284 288 289 290 291 291 291 292 289
277 277 276 276 276 277 277 277 277 276 276 276 276 276 277 277 278 278 279 280 282 283 284 284 283 283 285 286 286 289 287 289 290 291 291 291 292 294
276 276 276 276 276 276 276 276 276 276 276 276 277 276 276 277 277 278 279 280 284 284 283 284 284 284 286 285 285 286 290 289 290 290 291 291 292 296
276 276 276 276 276 276 276 276 276 276 277 276 276 276 277 277 278 278 279 282 285 283 283 284 284 286 286 286 288 289 289 290 290 290 290 291 291 292
275 275 275 275 275 275 275 275 275 275 275 276 276 276 277 277 278 279 280 282 283 283 283 283 285 286 285 286 287 288 288 289 290 290 290 289 290 291
275 275 275 275 275 275 275 275 275 275 275 276 276 277 277 278 279 279 280 283 283 284 283 283 284 285 285 285 287 287 287 287 289 290 290 290 290 289

GFSNE_925_thetae_036.txt.gz
Theta_e
286 286 286 286 286 286 285 285 284 284 284 285 285 285 285 285 285 286 286 286 286 287 288 288 288 289 290 290 291 291 291 292 293 293 294 295 296 297
286 286 286 286 286 285 285 285 284 284 284 285 284 284 284 285 285 285 285 285 285 286 287 287 288 288 289 289 288 288 289 290 291 291 292 293 295 296
286 286 286 286 285 285 285 285 284 284 284 284 284 284 285 284 284 284 285 285 285 286 286 287 287 287 287 287 288 288 289 289 290 290 291 292 294 295
286 286 285 285 285 285 284 284 284 284 283 284 284 284 284 284 284 285 285 285 285 284 284 284 285 285 286 286 287 287 288 288 289 289 289 290 291 292
286 285 285 284 284 284 284 284 284 284 285 285 284 284 284 285 285 284 283 282 282 282 283 283 284 284 285 286 287 287 287 287 287 288 288 289 290 291
285 285 284 283 284 284 284 285 285 284 284 284 285 285 285 283 283 282 281 282 282 282 283 283 283 284 284 284 284 284 285 285 285 286 287 288 288 289
285 284 284 284 284 285 285 285 284 285 285 285 285 283 283 282 281 281 281 282 283 283 282 282 282 282 282 282 282 283 283 284 285 285 286 287 287 288
284 284 284 283 283 284 284 284 285 286 286 284 283 282 282 281 281 282 283 282 282 282 282 282 282 282 282 282 282 283 284 284 285 286 287 287 288 289
284 284 284 284 284 284 284 284 285 285 283 283 282 281 281 282 283 283 282 282 282 282 282 282 281 281 281 281 281 282 283 284 285 286 286 287 287 288
284 284 284 284 284 284 284 286 284 282 282 282 282 282 283 283 282 282 282 282 282 281 281 281 281 280 280 281 281 282 283 284 285 285 286 287 287 287
284 284 284 284 283 284 286 284 283 281 281 282 283 282 281 281 281 282 281 281 281 281 280 280 280 280 280 281 281 282 283 284 285 286 286 287 288 288
284 283 283 283 283 285 283 282 281 280 281 283 279 279 279 279 280 280 280 280 280 280 280 280 280 281 282 282 282 282 281 282 283 285 286 286 287 287
283 283 283 283 284 283 282 281 281 283 281 278 278 279 279 279 279 279 279 279 279 279 279 281 281 281 280 281 282 282 282 283 283 283 284 285 286 287
283 283 282 283 282 281 280 281 282 281 278 278 278 279 279 278 278 278 278 278 278 279 279 280 280 281 281 281 282 283 283 284 284 283 283 283 285 285
283 283 282 281 280 279 279 280 279 277 278 278 279 278 278 277 277 277 278 278 279 279 280 281 281 282 282 283 283 283 285 285 284 284 284 283 283 283
282 281 280 278 278 278 277 277 277 277 278 278 278 277 277 277 277 277 278 278 279 280 281 282 283 283 284 283 284 284 285 285 285 286 287 288 287 284
281 279 277 277 277 277 277 277 277 277 277 277 277 276 277 277 277 277 278 278 279 280 281 283 284 284 284 284 284 285 286 287 289 290 290 291 291 290
279 277 276 276 276 276 276 277 277 277 276 276 276 276 276 276 277 278 277 278 279 281 282 284 284 284 285 287 287 285 289 289 290 290 290 291 291 287
277 276 276 276 276 276 276 276 276 276 276 276 276 276 276 276 277 277 277 278 280 281 284 283 284 284 285 286 287 289 288 289 290 290 290 292 292 288
276 276 275 275 275 275 276 276 276 276 275 275 276 276 276 276 276 277 277 278 281 283 283 283 284 284 286 285 286 287 289 289 290 290 290 292 293 292
275 275 275 275 275 275 275 275 275 275 276 276 275 276 276 276 276 277 278 280 282 282 283 283 284 286 286 286 287 288 289 288 289 289 290 290 292 292
275 275 274 274 275 275 275 275 275 275 275 275 276 276 276 276 277 278 279 280 281 283 283 283 285 285 285 285 286 286 288 288 289 289 290 289 290 291
274 274 274 274 274 274 274 274 274 275 275 275 276 276 277 277 278 279 280 281 283 283 283 283 284 284 285 285 286 286 287 287 288 289 289 290 290 290

GFSNE_925_thetae_039.txt.gz
Theta_e
286 286 286 286 286 286 286 286 286 287 288 286 286 285 285 285 285 285 285 286 286 287 287 288 288 288 289 290 290 290 291 292 293 293 293 293 294 295
286 286 286 286 285 285 285 285 285 286 287 286 285 285 285 285 285 285 285 285 285 286 286 287 287 287 288 289 289 289 289 290 290 291 291 292 293 293
286 286 285 285 285 285 285 285 285 285 286 285 285 285 285 285 285 285 285 285 285 285 285 285 286 286 287 287 288 288 289 289 289 290 290 291 292 293
286 286 285 285 284 284 284 284 284 284 285 285 285 285 285 285 285 285 285 284 283 283 283 284 285 286 286 286 287 287 288 288 288 289 289 290 291 292
286 285 284 284 284 284 284 284 284 285 285 285 285 285 285 285 285 284 283 282 282 283 283 283 284 285 285 286 286 287 287 287 287 287 288 288 289 290
286 285 284 284 284 284 285 285 285 285 285 285 285 286 285 284 283 283 283 283 283 283 283 283 284 284 284 284 285 285 285 285 286 286 287 287 288 289
285 284 284 284 285 285 285 285 285 285 285 286 286 285 284 283 283 283 283 283 283 283 283 283 283 283 283 283 283 283 283 284 285 286 286 287 287 288
284 284 284 284 283 284 284 284 285 285 286 286 284 284 283 282 283 283 283 284 284 283 283 283 283 283 283 283 283 283 284 285 285 286 286 287 288 288
284 284 284 283 284 283 283 284 285 286 285 284 283 282 282 283 283 284 283 283 283 283 282 283 282 282 282 282 282 283 284 284 285 286 286 287 288 288
284 283 283 283 283 284 284 285 284 283 283 282 282 282 283 284 282 282 282 282 282 282 282 283 282 282 282 282 282 283 284 284 285 286 286 287 287 288
283 283 283 283 283 284 285 284 283 282 281 282 283 283 281 281 281 282 282 281 282 281 281 281 282 282 282 282 282 283 284 284 285 286 287 287 288 288
284 284 283 283 283 285 284 283 282 281 282 283 281 280 279 280 280 280 280 280 280 281 281 281 281 282 283 283 283 283 283 284 284 285 286 287 288 288
283 283 283 283 284 283 282 282 281 283 282 280 279 279 280 280 280 279 279 279 279 279 280 281 281 281 282 283 283 284 284 284 285 285 285 286 287 287
283 283 283 283 282 281 281 280 282 281 279 279 279 279 279 279 278 278 278 277 278 278 279 279 280 281 282 283 285 285 285 286 286 286 286 286 287 287
283 283 283 281 280 279 279 280 279 278 278 278 279 279 278 278 277 277 278 278 278 279 280 280 280 281 282 284 285 286 287 287 287 287 287 287 287 286
282 282 280 279 278 278 278 278 278 278 278 279 278 278 277 277 278 278 277 278 279 280 281 281 283 284 285 285 285 286 287 288 288 289 290 290 290 289
282 280 278 277 277 277 277 277 278 278 278 277 277 277 277 277 277 277 278 278 278 280 281 282 284 284 285 285 286 287 288 289 289 290 290 290 290 287
279 277 277 277 277 277 277 277 277 277 277 277 276 277 277 277 277 278 278 278 279 280 281 283 284 285 286 287 288 288 289 289 289 290 291 292 290 287
277 276 276 276 276 276 276 276 276 276 276 276 276 276 277 277 277 277 277 278 279 280 282 284 284 286 287 289 288 288 288 289 289 290 291 292 291 289
276 276 276 275 275 275 276 276 276 276 276 276 277 277 276 276 277 277 278 278 280 282 283 284 285 285 287 288 287 287 289 288 289 290 290 291 292 291
275 275 275 275 275 275 275 275 275 275 276 276 275 276 276 277 277 277 278 280 282 282 283 285 285 285 285 285 288 289 288 289 289 289 290 290 291 292
274 274 274 274 274 275 275 275 275 275 275 276 276 276 277 277 277 278 279 280 281 282 283 284 284 284 285 286 287 288 288 288 289 289 289 290 289 291
274 274 274 274 274 274 274 274 274 275 275 275 276 276 277 278 279 279 281 281 282 284 284 285 284 284 285 285 286 287 288 288 288 289 290 289 290 290

GFSNE_925_thetae_042.txt.gz
Theta_e
289 289 289 289 288 288 288 288 289 290 290 289 289 288 287 287 287 286 286 287 287 287 287 288 288 288 289 289 290 290 291 291 292 293 293 293 294 295
288 288 288 288 288 288 288 288 287 288 290 288 287 287 287 287 286 286 286 286 286 286 287 287 287 287 288 289 289 289 290 290 291 292 292 293 293 294
288 288 288 287 287 287 287 286 286 286 288 287 287 287 286 286 286 287 286 286 286 285 285 286 286 287 287 288 288 289 289 290 291 291 291 292 292 293
288 288 287 287 286 286 286 286 286 286 286 288 286 286 286 286 287 286 286 285 284 285 285 285 286 286 287 287 288 288 289 289 289 290 290 291 291 291
288 287 287 286 286 286 286 286 286 286 286 287 287 286 287 287 287 286 285 285 285 285 285 285 285 286 286 287 287 288 288 288 288 288 289 289 289 290
287 287 286 285 285 285 286 286 286 286 286 286 287 287 288 287 286 285 285 284 285 285 285 285 285 285 286 286 286 286 286 287 287 287 287 288 288 289
287 286 286 285 285 285 286 286 286 285 286 287 287 288 287 286 285 285 285 285 285 285 285 285 285 285 285 285 285 285 285 286 286 287 287 288 288 288
286 286 285 285 285 285 285 285 285 286 286 288 286 286 285 284 284 285 285 286 286 284 285 285 285 285 285 285 285 285 286 286 286 286 287 287 288 289
286 285 285 285 285 284 284 285 285 286 286 285 285 284 284 284 284 285 285 284 284 284 284 285 284 285 285 284 284 285 285 286 286 287 287 287 288 288
285 285 285 285 285 285 285 285 286 285 284 284 283 283 284 284 284 283 283 283 283 284 283 285 284 284 284 285 284 285 286 286 287 287 288 288 288 289
285 285 285 284 284 285 285 286 284 284 283 283 283 284 284 283 283 282 283 283 284 283 283 283 284 284 283 284 285 286 286 287 287 287 288 288 289 289
285 285 284 284 284 285 285 284 284 283 282 283 284 282 282 282 282 282 282 282 282 283 283 283 283 283 284 284 285 285 285 286 287 288 288 289 289 289
285 284 284 284 284 284 283 283 282 282 283 282 282 282 282 282 282 282 281 281 281 281 281 281 282 282 282 284 284 285 286 287 288 288 288 289 289 289
284 284 284 284 283 282 282 281 282 282 281 281 281 281 282 281 281 280 280 279 279 280 280 279 280 281 283 284 286 286 287 287 288 289 289 289 290 290
284 284 284 283 281 280 280 281 280 280 280 280 281 281 281 280 279 279 280 280 280 280 280 281 281 282 283 284 286 287 288 288 288 289 290 290 290 290
283 283 282 281 280 280 280 280 280 280 280 280 280 280 280 280 280 280 280 280 280 281 281 282 282 283 284 286 287 287 288 289 289 290 290 290 290 290
282 281 280 280 280 280 280 280 280 280 280 280 279 279 279 279 280 280 280 281 281 281 282 283 283 284 286 286 287 288 290 290 290 289 289 290 291 290
280 280 279 279 279 279 279 279 279 279 279 279 278 279 279 279 279 280 280 280 281 281 282 283 285 285 287 288 289 290 289 290 289 290 290 291 291 291
279 279 279 279 278 278 278 278 279 279 278 278 278 278 279 279 279 280 280 281 282 282 283 284 285 287 288 289 289 289 289 289 289 290 290 290 291 291
278 278 278 278 278 278 278 278 278 278 278 278 278 279 278 279 279 280 281 281 282 283 284 285 286 287 287 287 287 287 289 289 289 289 290 290 290 291
277 277 277 277 277 277 277 277 277 277 278 278 277 278 279 279 280 280 281 282 283 284 285 285 285 286 286 287 289 290 289 289 289 289 290 290 290 291
277 277 277 277 277 277 277 277 277 277 277 277 278 278 279 279 280 281 282 283 284 284 285 286 286 286 287 288 289 289 290 289 289 290 290 290 290 291
276 276 276 276 276 276 276 276 276 277 277 277 278 278 279 280 281 282 283 284 285 285 286 286 287 287 287 288 288 289 289 289 289 290 291 290 290 291

GFSNE_925_thetae_045.txt.gz
Theta_e
291 291 291 290 290 290 290 290 290 290 290 290 290 289 289 288 288 288 287 287 288 288 289 289 289 289 289 290 290 290 291 291 292 292 293 294 294 295
290 290 290 290 289 289 289 289 289 289 289 289 288 288 288 288 287 287 287 287 288 287 288 288 288 288 288 289 289 290 290 291 291 292 293 293 294 294
290 290 290 289 289 288 288 288 288 288 288 288 288 288 288 287 287 287 288 287 287 287 286 287 287 288 288 289 289 289 290 290 291 291 292 292 293 293
290 289 289 289 288 288 287 287 287 287 288 288 288 287 287 287 287 288 288 288 286 286 286 287 287 288 288 288 288 289 289 289 290 290 291 291 292 292
289 289 289 288 288 287 287 287 287 287 287 287 287 287 287 287 288 288 286 286 286 286 286 286 286 287 287 288 288 288 288 289 289 289 289 290 290 291
289 289 288 288 287 286 286 286 287 287 287 286 286 287 287 288 287 286 286 285 285 285 285 286 286 286 287 287 287 287 287 288 288 288 289 289 289 289
289 288 287 287 286 286 286 286 286 286 286 286 287 287 287 286 286 285 285 285 285 285 285 285 286 285 285 286 286 286 287 287 288 288 288 289 289 289
288 287 287 286 286 286 286 286 286 286 286 287 287 287 286 285 285 285 284 285 286 284 285 284 284 285 285 285 286 286 287 287 288 288 289 289 289 289
287 287 286 286 286 286 285 285 286 286 286 286 286 285 285 284 284 284 285 285 284 284 284 284 284 284 285 285 285 286 287 287 288 288 289 289 290 290
286 286 286 286 286 286 286 286 286 286 286 285 285 284 284 284 285 285 284 284 283 283 284 284 284 284 284 285 284 285 286 287 288 289 289 290 290 290
286 286 286 286 285 286 286 286 286 284 284 284 284 284 285 285 284 284 283 284 283 283 283 283 283 284 283 283 284 285 287 287 287 288 289 290 290 291
285 285 285 285 286 286 285 285 284 283 283 283 284 283 283 282 283 283 283 284 283 282 282 283 282 282 283 283 284 283 285 285 287 288 289 290 290 290
285 285 285 285 285 285 285 284 283 283 283 283 282 282 282 282 282 283 282 282 282 281 281 281 281 281 281 282 282 283 284 285 287 287 288 289 290 291
284 284 284 284 285 284 283 282 282 283 282 282 281 281 281 282 281 281 280 280 280 280 280 281 281 281 281 282 282 284 284 285 287 288 288 289 290 290
284 284 284 284 283 282 281 282 282 281 281 281 281 281 281 281 280 280 281 281 281 280 280 281 281 282 282 283 283 284 286 287 287 288 289 290 289 289
284 283 283 282 281 281 281 281 281 281 281 281 281 281 280 280 280 280 281 281 281 281 281 281 282 283 284 284 284 285 286 287 288 290 289 289 289 290
283 282 281 281 280 280 280 280 280 280 280 280 280 280 280 280 280 280 280 281 281 281 282 282 283 283 284 285 286 287 288 289 290 289 289 289 290 290
281 280 280 280 280 280 280 279 279 280 280 280 279 279 279 279 280 281 281 280 281 282 282 283 283 285 286 287 287 288 288 289 289 289 289 289 290 290
279 279 279 279 279 279 279 279 279 279 279 279 279 279 279 280 280 280 280 281 282 282 282 283 284 285 286 286 287 287 287 287 288 289 289 289 290 290
279 279 279 279 278 278 279 279 279 278 279 278 279 279 279 279 280 280 281 281 282 283 284 284 285 285 286 287 287 287 287 288 289 289 289 289 290 290
278 278 278 278 278 278 278 278 278 278 279 279 278 279 279 280 280 280 281 282 284 284 284 285 285 286 286 287 287 287 288 288 289 289 289 290 291 291
278 278 277 277 278 278 278 278 278 278 278 278 278 279 279 280 280 281 282 283 283 284 285 286 285 286 287 287 288 288 288 289 289 289 290 290 290 291
277 277 277 277 277 277 277 277 277 277 278 278 278 279 279 280 280 281 282 283 284 286 285 285 285 286 287 287 288 288 289 289 289 289 290 291 291 291

GFSNE_925_thetae_048.txt.gz
Theta_e
291 291 291 290 290 290 290 289 289 288 288 288 288 289 288 288 288 288 288 287 288 288 289 289 289 290 290 290 290 291 291 292 292 293 294 294 295 295
290 290 290 290 290 289 289 289 288 288 287 287 287 287 287 288 287 287 287 287 287 288 288 288 289 289 289 290 290 291 291 291 292 292 293 294 294 295
290 290 290 289 289 289 288 288 287 287 286 287 287 287 287 287 287 287 286 287 287 287 287 287 288 289 289 289 290 290 290 290 291 292 292 293 294 294
289 289 289 289 289 288 288 287 287 287 287 286 287 286 286 286 286 286 287 288 287 286 286 287 287 288 288 289 289 289 290 290 290 290 291 291 292 292
290 289 289 289 288 288 287 286 286 286 286 286 286 286 285 285 286 287 286 285 285 285 285 285 286 287 288 287 288 288 289 289 289 289 290 290 290 291
289 289 289 288 287 287 286 286 286 286 286 286 285 285 285 286 286 285 285 284 284 284 284 285 286 285 286 286 286 287 287 287 288 289 289 290 290 290
288 288 288 287 287 287 287 287 287 286 286 286 286 286 286 286 285 285 284 284 283 283 284 284 284 284 283 284 284 285 286 288 288 289 289 290 290 290
287 287 287 286 286 287 286 286 287 286 286 285 286 286 286 285 284 284 283 283 284 285 284 283 283 283 283 284 284 285 286 287 288 289 290 290 291 291
286 286 286 286 286 286 286 286 286 286 286 286 285 285 284 284 283 283 284 285 285 284 283 283 283 283 283 283 283 285 286 287 288 289 289 290 290 291
285 285 286 286 286 286 286 286 286 285 285 285 284 284 284 284 285 285 285 284 283 283 283 283 283 282 282 282 283 284 285 286 288 288 289 289 290 291
285 285 285 285 285 286 286 286 285 285 284 283 283 284 284 284 284 283 283 283 283 283 282 282 282 282 281 281 282 283 284 285 285 287 288 289 290 291
284 284 285 285 285 285 286 286 284 283 283 283 283 282 282 282 282 282 282 282 282 282 282 281 281 281 281 281 282 281 282 282 284 285 287 288 289 290
285 284 284 284 285 285 285 284 283 283 283 283 281 281 281 281 281 281 281 281 281 281 280 281 281 281 281 280 281 281 282 282 283 284 285 287 289 290
284 284 284 285 285 284 283 282 283 283 281 280 281 281 281 281 281 280 280 280 280 280 280 281 281 281 281 281 281 282 282 283 284 285 286 287 288 289
283 283 284 283 283 282 281 282 282 280 280 280 281 281 280 280 280 280 279 280 280 280 280 280 280 280 281 281 282 282 284 284 285 286 287 288 289 289
283 283 282 281 281 280 280 280 280 280 280 280 280 280 280 280 279 279 279 279 279 280 281 281 281 281 282 282 283 284 284 285 286 287 288 288 289 288
283 281 280 279 279 279 279 279 279 279 279 279 279 279 279 279 279 279 279 280 280 280 280 281 282 282 282 283 283 284 285 286 287 287 287 288 288 289
281 279 279 279 279 279 279 278 278 279 278 279 279 279 279 279 279 279 280 279 279 280 280 281 282 283 284 284 285 286 286 286 286 287 287 288 289 289
279 278 278 278 278 278 278 278 278 278 278 278 278 278 278 278 279 279 279 279 280 280 281 281 283 284 284 285 286 286 286 287 287 287 288 288 289 289
278 278 278 278 277 277 278 278 278 278 278 278 278 279 279 278 279 279 279 280 280 282 283 283 283 284 285 286 286 286 286 287 288 288 288 289 289 290
277 277 277 277 277 277 277 277 277 277 278 279 278 278 278 279 279 279 279 281 282 282 283 283 284 285 285 285 286 286 287 288 288 288 289 289 290 291
277 277 277 277 277 277 277 277 277 277 277 278 278 278 278 279 279 279 280 281 281 283 284 284 285 285 285 285 286 286 287 288 288 288 289 289 290 291
276 277 277 277 277 277 277 277 277 277 277 278 278 278 279 279 280 280 280 281 283 284 286 285 285 285 285 285 287 287 288 288 288 288 289 290 290 290

GFSNE_925_thetae_051.txt.gz
Theta_e
291 291 291 290 290 290 290 289 288 286 287 287 288 287 287 286 287 287 287 286 287 288 288 289 290 290 290 291 291 292 292 293 293 294 294 295 295 296
290 290 290 290 290 289 289 289 288 287 285 287 286 286 286 287 286 287 286 286 286 287 288 289 289 289 290 290 290 290 292 292 292 293 294 294 294 295
290 290 290 289 289 289 288 288 287 287 285 286 286 286 286 286 285 285 285 285 286 286 287 287 288 289 289 289 289 290 290 291 291 292 293 293 294 294
289 289 289 289 289 288 288 287 287 286 286 285 285 285 285 285 285 285 285 286 286 285 286 286 286 287 287 288 289 289 289 290 290 290 291 291 292 292
289 290 289 289 288 288 287 287 286 286 286 286 285 285 285 285 285 285 285 285 285 284 284 284 285 286 287 288 287 288 288 288 288 289 289 290 290 291
289 288 288 288 287 287 287 287 287 286 286 286 285 285 285 285 285 285 284 284 284 283 283 284 285 285 285 285 285 286 286 286 287 288 289 290 291 291
286 287 287 287 287 287 287 287 287 287 286 286 285 285 285 285 285 284 283 283 283 283 283 284 284 283 283 283 283 284 285 287 287 288 289 290 291 291
286 286 286 286 286 286 286 286 287 287 286 286 286 285 285 284 283 283 283 283 283 284 284 284 283 283 282 282 283 284 285 286 287 288 288 289 290 291
285 285 285 285 285 285 285 286 286 286 286 286 285 284 284 283 283 283 283 284 284 283 283 283 283 282 282 282 282 283 284 285 286 287 288 289 290 291
284 285 284 285 285 285 286 286 286 285 285 285 284 284 283 284 284 284 284 283 282 282 282 282 282 282 282 281 282 283 284 285 286 287 287 288 289 290
284 284 285 284 284 286 286 286 286 285 284 283 284 284 284 283 283 283 282 281 281 281 281 281 281 281 280 280 281 282 283 284 284 285 286 287 287 289
285 284 284 284 285 286 286 285 284 283 283 284 283 282 281 281 281 281 281 281 281 281 281 281 280 281 281 281 281 281 281 281 283 284 285 286 287 287
284 283 283 283 285 285 285 284 283 284 283 281 280 280 280 280 280 280 280 280 280 280 280 281 281 280 280 280 281 281 281 281 282 282 283 284 286 288
283 283 283 284 284 283 283 282 283 283 280 280 280 280 280 280 280 280 280 279 279 279 279 279 279 280 280 280 280 281 281 281 282 283 283 284 286 287
283 283 284 283 281 280 280 281 281 279 279 279 279 280 279 279 279 279 279 279 279 279 279 280 279 280 280 280 280 281 282 282 283 283 285 285 286 286
283 282 281 280 279 279 279 279 279 279 279 279 279 279 278 279 279 279 278 278 278 279 280 280 280 280 280 281 281 282 282 283 283 284 285 286 286 286
282 280 279 278 278 278 278 278 278 278 278 278 278 278 278 278 278 278 278 278 279 279 279 279 280 280 281 281 282 282 283 283 284 285 285 286 286 286
279 278 277 278 278 277 278 277 278 278 278 277 277 277 278 278 278 278 279 279 279 279 279 279 280 280 281 283 283 284 284 285 285 285 286 286 287 287
277 277 277 277 277 277 277 277 277 277 277 277 277 277 278 278 279 278 278 278 279 279 279 280 281 282 282 283 285 285 285 285 286 286 286 287 288 288
277 277 277 277 277 277 277 277 277 277 277 277 278 278 278 278 278 278 278 279 279 280 282 282 282 283 284 285 285 285 285 285 286 286 287 288 288 288
276 276 277 277 277 276 276 276 276 276 278 278 277 278 278 278 278 279 279 280 281 281 281 282 283 284 285 285 285 285 285 286 286 287 288 288 288 289
276 277 277 277 277 277 277 277 276 277 277 277 277 278 278 279 279 279 280 280 280 281 281 282 284 284 285 285 284 284 286 287 287 287 288 288 289 290
277 277 277 277 277 277 277 277 276 277 278 278 278 279 279 280 280 280 281 281 281 282 284 284 284 285 285 285 285 286 286 286 287 288 289 290 290 290

GFSNE_925_thetae_054.txt.gz
Theta_e
292 291 291 291 290 290 290 289 288 287 286 287 288 287 286 286 286 286 286 285 286 287 288 288 289 290 290 291 291 292 293 293 293 294 294 295 295 296
291 291 290 290 290 289 289 289 288 287 285 287 286 286 286 286 285 286 285 285 285 286 287 288 288 289 289 290 291 291 291 292 292 293 293 294 295 295
290 290 290 290 289 289 289 288 288 287 284 285 285 286 286 286 286 285 284 285 285 285 286 287 287 288 288 288 289 289 290 291 292 292 292 293 294 294
289 289 289 289 289 289 288 288 287 287 286 284 285 286 286 286 285 285 284 285 285 285 285 286 286 286 287 287 288 289 289 289 289 290 290 291 291 292
290 289 289 289 288 288 287 287 287 287 286 285 285 285 285 285 285 284 284 284 284 284 284 284 285 285 286 287 288 287 287 288 288 288 289 289 290 290
289 288 288 287 287 287 287 287 287 286 286 286 285 285 285 285 284 284 284 283 283 283 283 283 284 285 285 285 286 286 286 286 287 287 288 289 290 291
286 286 286 286 287 288 287 287 287 286 286 286 284 284 284 284 284 283 283 283 283 283 284 284 284 283 283 283 283 283 284 285 286 287 288 288 289 290
285 285 285 285 285 286 287 286 287 287 287 286 286 284 284 284 283 283 282 282 283 284 284 283 282 282 282 282 282 284 285 285 286 287 287 288 289 290
284 284 284 284 284 284 285 286 286 286 286 286 285 284 284 284 283 283 282 283 283 283 282 282 282 281 282 282 282 283 284 285 285 286 287 288 289 289
284 284 284 284 284 285 285 286 286 286 285 285 285 284 284 284 284 284 283 282 282 281 281 281 281 281 281 281 281 282 283 284 285 286 286 287 287 288
284 284 284 284 284 285 286 286 285 284 284 284 284 284 284 284 283 283 282 281 280 280 280 280 281 281 280 280 281 282 283 284 284 284 285 286 286 287
284 284 283 283 284 285 286 285 283 283 283 283 283 282 281 281 281 281 280 280 280 280 281 280 280 280 281 281 281 281 281 281 282 283 284 285 285 286
283 283 282 283 285 285 284 283 282 283 283 282 280 280 281 280 280 280 280 279 279 279 280 280 280 280 280 280 280 280 280 280 281 281 281 283 284 285
283 283 283 284 283 282 282 281 282 282 280 279 279 279 279 279 279 279 279 279 279 279 279 279 278 279 279 279 279 280 280 280 280 281 282 282 284 285
283 283 283 282 280 280 280 281 281 279 279 278 279 279 279 278 278 278 279 279 278 279 279 279 278 278 279 279 279 280 281 281 281 281 282 283 283 283
283 281 280 279 279 279 279 279 279 278 279 279 278 278 278 278 278 278 278 278 278 278 280 279 279 279 279 279 279 280 281 281 282 282 282 282 283 284
281 279 278 278 277 278 278 278 278 278 278 278 277 277 277 277 278 278 277 277 278 278 278 279 280 279 279 279 279 280 281 281 282 282 283 284 285 285
279 277 277 277 277 277 277 277 277 277 277 276 276 276 277 277 277 278 279 278 278 278 278 279 279 279 280 281 281 281 282 283 284 285 285 285 286 286
277 276 277 277 277 277 277 276 276 277 277 276 276 277 277 278 279 278 278 278 278 278 278 279 279 281 282 282 283 284 284 285 285 285 285 285 285 286
276 276 276 277 277 276 276 276 276 276 276 277 278 278 278 277 278 278 278 278 278 279 281 281 281 281 282 283 284 285 285 285 285 285 285 286 286 287
276 276 277 277 277 277 276 276 276 276 277 278 277 278 278 278 278 279 279 280 282 281 281 281 282 283 283 284 284 285 285 285 285 285 286 287 287 287
276 277 277 277 277 277 277 277 276 277 277 277 278 279 279 279 279 279 280 281 281 281 282 282 283 284 284 285 285 284 285 286 286 287 287 288 288 289
277 277 277 278 278 277 277 277 277 277 279 279 279 280 280 280 281 281 281 282 282 283 284 284 284 285 285 285 285 286 286 287 287 288 288 289 290 290

GFSNE_925_thetae_057.txt.gz
Theta_e
293 292 292 291 291 290 290 290 289 286 285 287 288 287 287 286 286 286 286 285 286 287 287 288 289 289 290 290 291 291 292 292 293 293 294 294 295 296
291 291 291 290 290 290 289 289 288 288 285 287 287 287 286 286 286 286 285 285 284 285 286 287 288 288 289 289 290 290 290 291 292 292 293 294 295 295
291 291 291 291 290 289 289 288 288 287 285 286 286 286 286 286 286 285 285 284 284 284 285 286 287 288 288 289 289 289 290 290 291 292 292 293 293 294
292 290 289 289 289 289 288 288 287 287 285 284 285 285 286 286 286 285 285 284 284 283 285 286 286 287 287 288 288 289 289 290 290 290 290 290 291 292
289 291 290 289 289 288 288 287 287 286 286 285 284 285 285 286 285 285 284 284 283 283 284 284 285 285 286 287 288 288 288 288 288 288 288 289 289 290
290 289 288 288 287 287 287 287 287 287 286 286 285 285 285 286 285 284 283 283 283 283 283 283 284 285 285 285 286 286 286 286 287 287 287 288 289 289
286 286 286 286 287 287 288 287 287 287 286 286 284 285 285 284 284 284 283 282 282 283 283 283 284 283 282 283 283 283 284 285 286 287 288 288 289 289
285 285 285 285 285 285 286 286 287 287 287 286 286 284 285 284 283 283 283 282 283 283 283 283 282 282 282 282 282 284 285 285 286 286 287 287 288 289
284 284 284 284 284 284 284 285 286 286 286 286 285 285 284 284 284 283 283 282 283 282 282 282 281 281 282 281 282 283 284 285 285 286 286 287 287 288
284 284 284 284 284 284 285 285 285 286 285 285 284 284 284 284 285 284 283 282 282 281 281 280 281 281 281 281 281 283 284 285 285 286 286 286 287 287
284 284 284 283 283 285 285 286 285 284 284 283 284 284 284 283 283 282 281 281 280 280 280 280 280 280 280 280 282 282 283 284 284 284 285 285 286 286
284 283 282 283 284 285 286 284 283 282 283 283 283 282 281 281 281 281 280 279 280 280 281 280 280 280 280 281 281 281 281 281 282 283 283 284 285 285
283 283 283 283 285 284 284 282 282 283 283 282 280 281 281 281 281 280 279 279 279 279 279 280 280 279 279 279 280 280 280 280 280 280 281 282 283 284
283 283 283 284 283 282 281 281 282 282 280 280 279 279 279 279 280 280 279 279 279 278 279 278 278 278 278 278 278 279 280 280 280 280 281 281 282 284
283 283 282 281 280 279 280 281 281 280 279 278 278 279 279 278 279 279 279 278 278 278 279 278 277 277 278 278 278 279 280 280 280 280 281 281 282 282
282 281 279 278 278 279 279 280 279 279 278 279 278 278 278 278 278 278 277 277 277 277 280 279 279 279 278 278 278 279 279 280 281 281 281 281 281 282
281 279 278 278 278 278 278 279 278 278 278 277 276 277 277 277 277 278 277 277 277 278 278 279 279 279 278 278 278 279 279 280 280 281 281 282 283 283
278 277 277 277 277 277 277 277 278 277 277 276 276 276 277 277 277 278 279 278 277 278 278 278 278 279 279 280 280 279 280 281 282 282 283 284 285 285
277 277 277 277 277 277 277 277 276 277 277 277 277 277 277 277 279 277 277 278 278 279 279 279 279 280 281 281 282 283 283 284 284 285 285 285 285 285
276 276 277 277 277 277 277 276 277 277 277 278 278 278 278 277 278 278 278 279 279 280 281 282 281 281 282 282 283 284 284 284 285 285 285 285 285 285
276 277 277 277 277 277 277 277 277 277 277 278 278 278 279 279 279 279 279 281 282 282 282 282 283 284 284 283 284 284 285 285 285 285 285 286 286 286
276 277 277 277 277 277 277 277 278 278 279 278 278 278 280 280 280 280 281 281 282 282 283 283 284 284 284 285 285 285 285 286 286 287 287 288 288 288
277 277 277 278 278 278 278 278 278 279 280 279 279 280 280 280 281 281 281 282 284 284 284 284 284 284 285 285 285 285 285 286 287 288 288 289 289 289

GFSNE_925_thetae_060.txt.gz
Theta_e
295 294 293 292 292 291 291 291 290 287 286 288 288 288 288 287 286 286 286 285 287 287 287 288 288 289 289 290 291 291 292 292 292 293 293 294 295 295
293 292 291 291 291 290 290 289 289 288 286 288 288 287 287 286 286 286 286 285 285 285 286 287 287 288 289 289 290 290 291 291 291 292 293 294 294 295
291 291 290 291 292 291 290 289 288 288 286 286 286 287 286 286 286 286 286 285 285 284 285 286 287 288 289 289 289 290 290 290 291 291 292 293 294 294
291 292 290 290 290 288 289 288 288 287 286 284 285 285 286 286 286 286 286 285 284 283 284 286 286 287 287 288 288 289 289 290 290 290 290 291 291 292
290 290 291 291 289 288 288 287 287 286 286 285 284 285 285 286 286 286 285 284 283 283 284 284 285 285 286 287 288 288 288 288 288 288 289 289 289 290
291 291 290 288 287 286 286 287 287 287 286 286 285 285 285 286 285 284 283 283 283 283 284 283 284 285 285 285 286 286 286 286 287 287 288 288 288 289
289 287 286 286 287 287 288 287 287 287 286 286 285 285 284 284 284 284 283 282 282 283 283 283 283 282 282 283 283 283 284 285 286 287 288 288 289 289
285 284 284 284 284 284 285 286 287 287 287 286 286 284 284 284 284 283 283 282 283 283 283 282 282 282 282 282 282 283 285 286 286 287 287 287 288 288
284 284 284 284 284 284 284 285 285 286 286 286 286 285 284 284 284 283 283 283 283 283 282 281 281 281 281 282 282 283 284 285 286 287 287 287 287 288
284 284 284 284 283 284 285 285 285 286 285 284 284 284 284 284 285 284 283 282 281 281 281 280 281 281 281 281 281 283 284 285 285 286 286 286 287 287
284 284 283 283 283 285 286 286 284 283 283 283 283 284 284 283 283 282 281 280 280 280 280 280 280 280 280 280 281 282 283 284 284 284 285 285 286 286
284 283 283 283 285 285 285 284 282 282 282 283 283 282 281 282 281 281 280 279 279 279 281 280 280 280 279 281 281 281 280 281 281 282 283 284 284 285
283 283 283 283 284 284 283 282 281 283 283 282 281 281 281 281 281 280 279 278 278 278 279 279 280 279 279 279 279 279 279 279 280 280 280 281 282 283
283 283 282 283 282 281 281 281 283 282 280 280 279 279 279 280 281 281 280 279 279 277 279 278 278 278 278 278 278 279 279 279 279 279 280 280 281 283
282 282 281 280 279 279 280 281 280 280 279 279 278 279 279 280 280 280 280 280 279 280 279 279 278 277 277 277 277 278 279 280 279 279 280 281 281 281
281 281 279 278 279 279 280 280 280 279 279 278 278 278 279 279 279 279 278 278 276 278 280 279 279 279 277 277 277 278 279 279 280 280 280 280 280 280
280 278 278 278 279 279 279 279 279 279 278 278 277 276 278 278 278 279 278 278 277 277 278 280 279 279 279 278 278 279 279 279 280 280 280 280 281 281
278 277 277 278 278 278 278 278 279 279 278 277 277 277 277 277 278 279 279 278 277 278 278 279 279 279 279 280 280 279 280 280 280 281 282 282 283 284
277 277 277 277 277 277 277 277 277 278 277 278 278 278 278 278 279 278 278 278 278 279 280 280 281 282 282 282 283 283 283 283 283 284 284 284 284 284
277 277 277 277 277 277 277 277 277 278 278 278 278 278 279 278 278 279 279 279 280 281 282 282 282 283 283 284 285 284 284 284 284 284 284 285 285 285
276 277 277 277 278 277 277 277 277 278 277 278 279 280 280 279 279 280 280 281 283 282 282 283 284 284 284 284 284 285 285 285 286 286 286 286 286 287
277 277 278 278 278 278 277 277 278 279 279 279 280 280 281 280 280 281 282 282 282 282 283 284 284 284 284 284 285 285 285 286 287 288 288 288 288 289
277 278 278 278 278 278 278 278 278 280 280 280 280 281 280 280 281 282 282 282 283 284 285 285 285 284 284 284 285 285 285 286 286 288 288 289 289 289

GFSNE_925_thetae_063.txt.gz
Theta_e
302 298 296 293 293 293 292 291 292 292 290 289 289 289 288 288 287 287 287 286 287 288 288 288 288 289 289 290 291 291 292 292 293 294 294 294 295 296
297 294 292 291 291 291 291 291 292 291 292 289 288 288 288 287 287 286 286 286 286 286 287 287 288 288 289 289 290 291 291 292 293 293 294 294 295 296
292 292 291 290 291 292 291 290 290 289 288 288 287 287 287 287 286 286 286 286 285 285 286 286 287 288 288 289 289 290 290 291 291 292 293 293 294 295
290 291 292 293 293 292 292 290 289 288 287 287 286 286 286 286 286 286 286 285 285 284 285 286 286 287 287 288 288 289 289 290 291 290 290 291 291 292
292 293 292 292 292 291 290 288 287 286 286 285 286 285 285 286 285 285 285 284 284 283 284 284 285 286 286 287 288 288 288 288 288 289 289 289 290 290
293 293 293 292 291 289 287 286 287 287 286 286 286 286 285 285 285 284 285 284 284 284 284 284 284 285 285 285 286 286 286 286 287 287 288 288 289 289
292 292 289 287 287 287 287 287 287 286 286 286 286 286 286 286 285 285 284 284 284 284 284 284 284 284 284 284 284 284 284 285 286 287 288 289 289 290
285 284 284 285 285 284 286 286 287 287 287 286 286 286 286 285 284 284 284 284 284 284 284 284 284 283 283 283 283 284 285 286 286 287 287 288 288 289
284 284 284 284 284 283 283 285 285 286 286 286 286 285 284 284 284 284 284 284 284 283 283 283 283 283 283 283 283 283 284 285 286 286 287 287 288 288
284 284 284 283 283 285 285 285 286 285 284 284 284 283 284 284 284 284 283 283 283 282 282 282 283 283 282 282 282 283 284 285 285 286 286 287 287 287
284 283 283 283 284 286 286 285 284 283 282 282 283 283 283 283 282 283 283 282 281 282 281 281 282 282 281 281 282 282 283 284 284 284 285 285 286 286
283 283 283 284 285 285 285 283 282 282 282 283 282 282 282 282 282 281 281 281 280 281 282 281 281 281 282 282 282 282 281 281 282 283 283 284 284 284
283 283 282 284 284 283 283 282 282 284 283 282 281 281 282 282 281 281 280 279 279 279 280 280 280 280 280 280 281 281 281 280 281 281 281 282 282 283
283 282 282 282 281 281 281 282 283 282 281 280 280 280 280 281 282 281 281 280 279 278 281 278 278 279 279 279 280 281 281 281 280 280 281 281 282 282
282 282 280 280 279 280 280 281 280 280 279 279 280 280 279 280 281 281 281 281 280 280 281 280 278 278 278 278 279 279 280 281 280 280 281 281 281 282
281 280 278 279 279 280 280 280 280 279 279 279 278 278 279 279 279 280 279 279 278 280 281 280 280 279 278 279 279 279 280 280 281 281 281 281 281 281
280 278 278 279 279 279 279 279 279 279 278 277 277 278 278 278 279 280 279 278 278 279 280 281 280 280 279 279 279 280 281 281 281 281 281 281 282 282
278 277 277 277 277 277 278 278 278 278 278 277 277 277 277 278 279 280 280 279 279 279 280 281 281 281 282 283 282 281 282 282 283 283 283 283 284 284
277 277 277 277 277 277 277 277 277 278 278 278 278 278 278 279 279 280 280 280 281 281 281 282 283 284 284 285 285 285 285 285 285 285 285 285 285 285
277 277 277 277 277 277 277 277 277 278 278 278 278 278 280 279 278 280 281 281 282 283 284 284 284 284 285 286 286 284 284 284 285 286 286 287 287 286
277 277 277 278 278 278 278 278 277 278 277 278 279 280 281 279 279 280 281 282 283 284 284 284 284 285 285 285 285 285 286 285 285 286 286 287 288 288
277 277 278 278 278 278 278 278 278 279 279 279 279 280 281 280 280 281 281 282 283 283 284 284 285 285 285 285 286 285 285 286 286 286 286 287 288 289
277 278 278 279 279 279 279 278 278 279 280 280 280 281 280 279 281 281 282 282 284 285 285 285 285 286 286 286 285 285 285 285 286 287 287 288 288 289

GFSNE_925_thetae_066.txt.gz
Theta_e
308 307 305 299 296 294 295 295 297 295 293 290 290 289 289 289 288 288 288 288 288 289 289 289 290 290 290 290 291 292 292 293 293 294 295 295 296 297
305 303 296 295 297 294 292 292 293 293 296 290 289 290 289 288 288 287 288 288 287 288 288 289 289 289 289 289 290 291 291 292 293 293 294 295 296 297
298 297 294 291 291 292 293 293 293 293 292 291 291 290 288 287 288 288 287 287 287 287 287 288 288 288 289 289 290 290 290 291 291 292 293 294 295 295
292 291 291 291 293 294 294 294 292 291 290 289 287 287 287 287 287 287 287 287 286 286 286 287 287 288 288 288 289 289 290 290 290 291 292 292 292 293
291 291 292 293 293 293 293 292 291 289 287 287 287 287 287 287 287 287 287 287 286 286 286 286 286 287 287 288 288 288 288 289 289 289 289 290 290 290
293 293 293 294 293 292 291 289 287 287 288 288 288 288 288 287 287 287 287 286 286 286 286 286 286 286 286 286 287 287 287 287 287 288 288 289 289 289
293 292 292 291 290 288 288 288 288 288 287 288 288 288 288 288 287 286 286 286 286 286 286 286 286 286 286 286 286 286 286 286 287 287 288 288 289 290
291 290 287 286 287 287 286 287 287 288 288 288 288 288 288 287 286 285 286 285 286 286 286 286 286 286 286 286 286 286 286 286 287 287 287 288 288 288
285 284 285 285 284 284 284 285 286 286 286 287 287 287 286 285 285 285 285 285 285 286 285 285 285 285 286 285 285 285 285 286 286 286 287 287 288 288
285 285 285 284 284 285 286 287 287 286 286 285 285 285 285 285 285 285 285 285 285 285 285 285 285 285 285 285 285 285 285 285 286 286 286 287 287 287
284 284 284 284 284 286 287 287 286 285 283 283 283 284 284 284 284 284 284 285 285 284 284 284 285 285 284 284 284 284 284 284 285 285 285 286 286 286
284 284 283 285 285 285 285 285 284 283 284 284 284 283 283 283 282 283 283 283 283 283 285 283 283 283 284 283 284 284 284 284 284 284 284 285 285 285
284 284 283 284 283 283 283 283 283 284 284 283 283 283 284 284 284 283 283 282 282 282 282 282 282 282 282 282 283 283 283 283 284 284 284 284 284 284
283 283 283 282 281 281 282 283 283 283 282 282 283 284 284 284 283 282 282 281 280 280 281 280 280 280 280 281 282 282 283 283 283 283 283 284 284 284
282 282 281 280 280 281 281 281 281 281 282 282 283 283 283 282 281 281 282 281 281 281 281 281 280 279 279 280 281 281 282 283 282 282 283 283 283 283
281 280 279 279 280 280 281 281 281 281 281 282 282 281 281 281 282 282 282 282 281 281 283 282 282 280 280 281 281 282 282 283 283 283 283 283 283 283
281 279 280 280 281 281 281 281 281 281 281 281 280 281 281 281 282 282 282 282 282 282 282 282 283 283 282 282 282 282 283 283 284 284 284 284 284 284
279 279 280 281 281 281 281 281 281 280 280 280 280 280 280 280 281 282 282 282 282 282 282 283 283 284 284 285 285 284 284 284 285 286 286 286 286 286
279 279 280 280 280 280 280 280 280 280 278 278 279 279 279 280 281 282 282 283 283 284 284 284 285 285 286 287 286 286 286 286 286 286 286 287 287 287
278 279 279 279 279 280 280 279 279 279 279 279 279 279 280 280 281 282 282 282 283 284 285 285 285 286 286 287 286 286 285 285 286 286 287 287 287 287
278 278 279 279 279 279 278 278 278 278 278 279 278 278 279 280 281 281 282 283 284 284 285 285 285 285 286 286 287 287 287 286 286 286 286 287 287 288
277 278 278 278 278 278 278 277 277 278 279 279 279 280 280 280 281 281 282 283 284 284 285 285 285 286 286 287 287 287 287 286 286 286 286 286 287 288
277 277 278 278 278 278 277 277 277 278 278 279 279 280 280 280 281 281 282 283 284 284 286 286 286 286 287 287 287 287 287 286 287 287 287 287 288 288

GFSNE_925_thetae_069.txt.gz
Theta_e
318 316 310 304 301 299 299 299 300 301 297 291 290 290 291 290 290 290 289 291 291 291 291 291 291 291 291 291 292 292 292 293 293 294 295 296 296 297
314 312 305 301 300 299 297 299 299 296 296 291 290 291 292 292 292 292 291 288 289 289 290 290 290 290 290 290 290 291 292 292 293 293 294 295 295 297
305 302 299 298 297 294 294 294 296 296 295 291 291 291 292 292 291 288 288 288 287 288 289 289 289 289 289 290 290 291 291 291 292 292 293 293 294 295
298 297 295 293 293 294 293 293 294 294 294 291 289 290 290 288 287 287 287 288 288 288 288 288 288 289 289 289 290 290 290 290 291 291 291 292 292 293
294 294 292 292 293 293 293 292 292 291 290 289 289 288 288 288 288 288 288 288 288 288 287 287 288 288 289 289 289 289 290 290 290 290 290 290 290 291
292 292 292 293 293 292 291 290 289 288 288 288 289 289 289 288 288 288 288 287 286 286 287 287 288 288 288 288 288 288 288 288 288 288 289 289 289 289
293 292 291 291 291 291 289 288 289 289 289 289 289 289 289 289 288 288 287 286 287 286 286 287 287 287 287 287 287 287 287 288 288 288 289 289 289 289
290 289 288 288 288 288 287 287 288 288 288 289 289 288 288 288 287 286 286 286 286 286 286 286 287 286 286 286 286 287 287 288 288 288 288 288 288 288
286 286 286 285 284 284 285 286 286 287 287 287 287 287 287 286 286 285 285 285 285 286 286 286 286 286 286 286 286 287 287 287 287 287 288 288 288 288
285 285 285 285 284 285 286 287 287 287 287 286 286 285 285 285 286 286 286 285 285 286 286 286 286 286 286 286 286 286 286 287 287 287 287 287 287 288
284 285 285 285 285 287 287 287 287 286 285 284 283 284 285 285 285 285 284 285 285 285 284 284 285 285 284 284 285 285 286 286 286 286 287 287 287 287
285 285 284 285 285 285 285 285 285 284 283 285 285 284 284 284 284 284 283 284 284 284 285 284 284 283 284 284 284 284 283 284 285 286 286 286 286 286
285 284 284 284 283 283 283 283 283 284 285 285 284 284 284 284 284 284 284 284 283 282 283 283 283 282 282 282 283 283 282 283 284 284 284 285 285 286
284 283 283 282 282 282 282 283 284 284 283 283 283 284 284 284 284 283 282 282 281 281 281 281 281 281 281 280 281 281 282 282 282 283 284 284 284 285
283 282 281 281 281 282 282 282 282 282 282 283 284 284 284 283 282 282 282 282 282 282 282 282 282 281 281 281 281 281 282 282 282 283 284 284 284 284
283 282 280 280 281 281 281 282 282 282 282 282 282 282 282 282 282 282 282 282 282 282 283 282 282 283 283 282 282 282 282 282 283 283 283 284 284 285
281 280 280 281 282 282 282 282 282 282 282 282 281 281 281 281 281 282 282 282 283 283 283 283 283 283 284 284 283 284 284 284 284 284 285 285 286 286
280 280 281 282 282 282 282 282 282 282 281 281 280 279 280 280 280 281 282 282 283 283 283 283 284 285 285 285 285 285 285 286 286 286 287 287 287 286
279 280 281 281 281 281 281 281 281 280 280 279 279 279 279 279 280 281 282 283 283 283 283 284 284 285 286 285 286 286 286 286 286 286 286 286 286 286
279 280 280 280 280 281 280 280 280 279 279 279 279 279 279 280 280 281 282 283 283 283 284 284 284 285 285 286 286 286 286 286 286 286 287 286 286 286
279 279 280 280 280 280 280 279 279 279 279 279 280 280 280 280 280 281 281 283 283 283 284 284 284 285 285 286 286 286 287 287 287 287 287 287 287 287
278 278 279 279 279 279 279 278 278 278 279 279 280 280 280 281 281 281 281 282 282 283 283 284 284 286 286 286 286 287 287 287 287 287 286 286 287 287
278 278 278 279 279 279 279 278 279 279 279 279 279 280 280 280 280 281 281 281 282 283 284 285 286 286 286 286 287 286 286 287 287 287 286 286 287 287

GFSNE_925_thetae_072.txt.gz
Theta_e
325 322 319 314 310 308 306 305 305 301 297 294 296 295 295 296 293 292 291 290 292 292 293 292 292 293 293 293 293 293 293 293 294 294 295 296 296 297
319 318 314 309 304 301 300 301 303 301 298 293 292 292 291 291 291 291 292 293 290 290 291 291 291 291 291 292 292 292 292 293 293 294 294 295 295 296
313 310 306 303 301 300 300 300 300 299 297 292 292 292 291 291 292 293 291 289 288 288 289 290 290 290 290 291 291 291 292 292 292 293 293 293 294 294
303 301 300 298 296 296 296 296 296 296 296 292 291 291 292 292 289 288 287 288 288 288 289 289 289 289 289 290 290 291 291 291 291 291 292 292 292 292
296 296 294 295 294 293 293 294 293 293 294 292 290 289 288 289 288 288 288 288 288 287 287 287 288 289 289 290 290 290 290 290 290 290 290 290 291 291
293 292 292 293 293 293 292 291 291 290 289 288 289 289 289 289 288 288 288 287 287 286 286 286 287 288 288 288 288 289 288 289 289 289 289 290 290 290
292 292 292 292 291 291 290 289 289 289 289 289 288 289 289 288 288 288 287 286 286 285 286 286 286 286 286 286 286 287 287 288 289 289 289 289 289 289
289 289 289 290 289 288 288 289 288 288 288 288 288 288 288 288 286 286 285 285 285 285 285 285 285 286 286 286 286 287 288 288 288 289 289 289 289 289
288 287 286 285 285 285 286 286 286 287 287 287 287 287 286 286 285 285 285 285 285 285 285 285 286 286 286 286 286 287 287 288 288 288 289 289 288 289
287 286 285 284 284 286 287 287 287 287 287 286 286 285 285 284 285 285 285 285 284 284 285 285 285 285 285 285 285 285 286 287 287 288 288 288 288 288
284 284 285 285 286 287 286 287 286 285 285 284 284 285 285 286 286 286 284 283 284 284 284 283 284 284 284 284 284 284 285 285 285 286 287 287 287 287
285 284 285 285 285 285 284 284 284 283 283 285 285 284 284 284 284 284 284 283 283 283 284 283 283 283 283 283 283 283 283 283 283 284 285 286 286 286
284 284 283 284 283 283 283 282 283 284 284 284 283 283 284 284 284 284 284 284 284 283 283 283 283 282 281 281 282 281 281 282 281 282 283 284 285 286
283 283 283 283 282 282 282 283 284 284 283 283 283 284 284 284 283 283 282 282 282 282 282 282 281 281 281 281 281 281 281 281 282 282 282 284 283 284
282 282 282 281 281 282 282 283 282 282 282 282 283 283 283 282 282 281 282 282 282 282 282 282 282 282 282 282 282 282 282 282 283 283 283 283 283 284
282 282 281 281 281 282 282 282 282 282 282 282 282 282 281 281 281 281 281 282 282 282 283 282 282 283 283 283 283 283 283 283 283 284 284 284 285 285
282 280 280 281 281 282 282 282 282 282 282 281 281 281 280 280 280 280 280 281 282 282 282 283 283 283 283 284 283 284 284 284 284 284 285 285 285 286
280 279 280 281 281 281 281 281 281 281 281 280 279 279 279 279 279 280 280 281 282 282 283 283 283 283 284 284 285 284 284 285 285 285 285 285 286 286
279 279 280 281 281 281 281 280 280 280 280 279 279 279 279 279 280 280 280 280 281 282 283 283 284 284 284 284 284 285 285 285 285 285 285 285 285 286
279 279 279 280 280 280 280 280 279 279 279 279 279 279 280 280 280 279 279 280 281 282 283 283 283 283 283 284 284 285 285 286 286 286 286 286 286 286
278 279 279 279 279 280 279 279 279 279 279 279 279 279 280 280 280 280 280 281 282 282 282 282 282 283 284 284 284 285 285 286 286 286 286 287 287 286
278 278 278 278 279 279 279 279 279 279 279 279 279 279 279 279 279 280 280 280 281 281 282 282 282 283 284 285 285 285 285 286 286 286 286 286 287 287
277 278 278 278 278 278 279 278 278 278 278 278 279 279 279 279 279 279 279 280 280 281 282 282 283 284 285 285 286 286 285 285 285 286 286 286 286 286

GFSNE_925_thetae_075.txt.gz
Theta_e
325 324 322 318 314 311 310 310 310 302 299 295 296 296 297 295 297 297 296 295 294 293 294 295 295 294 294 294 294 294 294 294 294 295 295 296 297 297
319 319 317 314 310 308 306 305 304 304 302 297 294 294 294 295 295 294 294 293 291 293 293 292 292 292 292 292 293 293 293 293 294 294 295 295 296 296
313 311 309 305 304 302 302 301 301 302 299 293 293 294 294 294 293 292 292 292 292 290 290 290 291 291 291 291 291 292 292 292 293 293 293 294 294 295
305 303 301 300 299 298 298 298 298 298 297 292 291 292 292 292 292 292 289 287 288 288 289 290 290 289 290 290 291 291 291 291 291 291 292 292 293 293
298 298 296 296 295 295 295 294 295 295 295 293 291 291 291 289 288 288 288 288 288 287 287 287 288 288 289 290 290 290 290 290 290 290 290 291 291 291
295 294 294 293 293 293 293 292 292 292 291 291 289 289 289 289 288 288 288 288 287 286 286 286 287 287 287 288 288 288 288 288 289 289 290 290 290 290
292 292 292 292 292 291 291 290 289 289 289 289 288 289 289 288 288 287 286 286 285 285 286 286 286 286 286 286 286 286 288 289 289 290 290 290 290 290
291 291 290 290 289 289 289 289 288 288 288 288 288 288 287 287 286 286 285 285 284 285 285 285 286 286 286 286 286 287 288 288 289 289 290 289 289 290
290 289 289 287 286 285 286 287 287 287 287 287 287 287 286 285 285 285 285 285 285 285 284 285 285 285 286 285 285 286 287 287 288 289 289 289 289 289
287 285 285 285 285 287 287 287 287 287 287 286 286 285 285 284 284 285 285 285 284 284 284 284 285 285 284 285 285 285 286 286 287 287 287 287 288 288
284 285 285 285 287 287 286 286 286 285 285 284 284 285 286 286 287 286 285 284 283 283 283 283 284 283 283 283 284 284 284 284 284 284 285 286 286 287
284 284 285 285 285 284 284 283 283 283 283 284 285 284 284 284 284 284 284 284 283 283 283 283 283 282 282 282 283 282 282 282 282 283 283 284 285 285
284 283 283 284 283 283 283 282 282 284 284 284 283 283 284 284 284 284 284 283 283 283 283 283 282 282 281 282 282 282 282 282 283 283 283 283 283 285
283 283 283 283 282 282 282 283 284 284 282 282 283 283 283 283 283 282 281 282 282 282 282 282 282 282 282 282 282 282 282 283 283 283 283 283 283 283
282 283 283 281 281 281 283 283 283 282 282 282 282 282 282 282 281 281 281 281 282 282 282 282 282 282 282 282 282 282 283 283 283 284 283 283 284 284
282 281 281 281 281 282 282 282 282 282 282 282 281 281 281 280 280 281 281 281 280 281 282 282 282 283 283 282 282 283 283 283 283 284 284 284 284 284
282 280 280 280 281 282 281 281 281 281 281 281 280 280 279 279 280 279 280 280 280 280 281 282 282 282 283 283 282 283 283 284 284 284 284 284 285 285
280 279 280 280 281 281 281 281 281 281 280 280 279 279 279 279 279 280 280 280 280 279 280 281 282 282 283 283 283 283 284 284 284 284 285 284 285 285
279 279 279 280 280 280 280 280 280 280 279 279 279 279 279 279 279 280 279 279 279 280 280 281 281 283 282 283 283 283 284 284 284 284 285 285 285 285
279 278 279 279 280 280 280 280 279 279 279 279 279 279 279 279 279 279 279 278 279 280 281 282 282 281 282 282 283 283 284 284 284 285 285 285 285 286
278 278 278 278 279 279 279 279 279 279 279 279 279 279 279 279 279 279 279 280 281 281 280 281 281 282 282 282 282 283 284 284 284 285 285 286 286 285
278 278 278 278 278 278 279 279 279 278 278 278 278 278 279 279 279 279 278 279 279 279 280 281 281 282 282 282 283 284 284 285 285 285 285 285 285 286
278 278 278 277 277 277 278 278 278 278 278 278 278 278 279 278 279 278 278 279 279 279 280 281 281 282 282 282 284 285 285 285 285 285 285 285 285 286

GFSNE_925_thetae_078.txt.gz
Theta_e
320 320 321 320 318 316 314 313 311 306 301 298 297 296 296 296 297 298 298 297 296 297 296 296 296 297 297 295 295 295 295 295 295 295 296 296 297 298
314 315 313 312 310 309 308 307 307 308 304 299 296 296 295 296 296 295 295 296 296 294 294 295 294 293 293 293 293 293 293 294 294 295 295 296 296 297
309 308 308 307 305 303 302 302 302 302 300 294 295 294 294 294 295 294 295 293 292 292 292 292 291 292 292 292 292 292 292 293 293 293 294 294 295 296
305 305 303 301 301 300 300 299 298 298 297 294 292 292 292 293 292 292 292 290 288 288 289 290 291 290 290 290 291 291 292 292 292 292 292 293 293 293
300 300 299 298 297 296 296 295 295 295 295 294 291 291 291 291 290 288 288 288 288 288 288 287 287 288 289 290 291 291 290 290 290 290 291 291 291 292
295 295 295 294 294 293 293 293 293 293 292 291 290 289 289 288 288 288 288 288 287 287 286 285 286 286 287 287 288 288 287 288 289 290 290 291 291 291
292 292 292 292 292 293 292 291 291 291 290 289 288 288 288 288 288 287 286 286 286 285 285 286 286 286 286 286 286 286 286 289 289 290 290 290 291 291
291 291 291 291 290 290 290 289 288 288 288 289 288 288 287 287 286 285 285 285 285 285 285 286 286 287 286 286 286 286 287 288 289 289 289 289 290 290
290 290 289 286 285 285 286 287 287 288 287 287 287 286 286 286 285 284 285 285 285 285 284 284 286 286 285 285 285 285 287 288 288 288 288 288 289 289
285 285 285 285 286 287 286 287 286 286 286 286 286 285 285 284 284 284 285 285 284 284 284 283 284 284 284 284 284 285 286 286 285 286 286 286 287 288
284 285 285 286 287 286 285 286 286 285 284 285 285 285 286 286 287 286 286 285 283 283 283 283 283 283 282 283 284 284 284 284 284 284 285 285 285 286
284 285 285 285 285 284 284 283 283 283 283 283 284 284 283 283 284 284 284 284 283 282 283 283 283 282 282 282 283 282 283 283 283 283 284 284 285 284
283 283 283 284 283 283 283 282 282 284 284 283 283 283 283 284 284 284 284 283 283 283 283 282 282 282 282 282 282 282 282 283 283 283 283 283 284 284
282 282 282 283 282 283 283 283 284 284 282 282 282 283 283 282 282 282 282 281 281 281 281 282 282 282 281 281 282 282 282 282 283 283 283 284 283 284
282 283 283 282 281 281 283 283 283 282 282 282 282 282 281 281 280 281 281 281 281 281 281 281 281 282 282 282 282 282 282 282 282 283 283 284 284 284
282 281 280 281 281 282 282 282 282 281 282 281 281 281 280 280 280 280 280 280 280 280 281 281 281 282 282 282 282 282 282 282 283 283 283 283 284 284
282 279 280 280 281 281 281 281 281 281 281 280 280 280 280 279 279 279 279 280 279 280 279 280 282 281 282 282 282 282 282 282 282 283 283 283 284 284
281 279 279 280 280 281 281 281 280 280 280 279 280 279 279 279 279 279 280 279 279 279 279 280 281 280 281 282 282 282 282 283 283 283 283 283 284 284
280 279 279 279 280 280 280 280 280 279 279 279 279 279 279 279 279 279 279 279 278 278 280 280 281 280 282 281 281 282 282 283 282 283 283 283 284 284
279 279 278 278 279 279 279 280 279 279 279 279 279 279 279 278 278 278 279 278 278 279 280 281 280 280 281 281 281 282 282 282 283 283 283 284 284 285
279 278 278 278 278 278 278 279 279 279 279 279 279 278 278 278 278 278 278 279 280 280 279 279 280 280 281 281 281 282 282 282 283 284 284 284 285 285
279 278 278 278 278 278 278 278 278 278 278 278 278 278 278 278 278 278 278 277 278 278 278 279 280 280 281 281 281 282 282 283 284 284 284 284 285 285
279 278 278 278 278 277 277 277 277 278 277 277 277 277 277 277 278 278 278 278 278 278 278 279 280 280 281 282 282 282 283 284 284 284 284 284 284 284

GFSNE_925_thetae_081.txt.gz
Theta_e
318 318 318 318 318 316 314 313 312 310 305 300 299 297 298 299 299 300 300 299 299 298 298 298 298 298 298 297 297 297 297 296 296 296 296 297 298 298
314 313 312 312 312 312 310 309 307 307 306 299 297 297 296 296 297 297 297 297 297 296 296 296 296 296 295 294 294 294 294 294 295 295 296 296 297 297
307 306 305 305 305 306 307 305 304 304 301 295 296 295 295 295 295 294 294 294 294 294 293 294 293 293 293 293 293 293 293 293 294 294 294 295 295 295
304 303 302 302 303 301 301 300 299 300 299 295 293 293 293 293 292 292 292 292 290 289 289 290 291 291 291 291 291 291 292 293 293 293 293 293 294 294
301 300 299 298 297 296 297 296 296 296 296 295 291 291 291 291 291 291 290 288 288 288 288 288 288 288 289 289 291 291 291 291 291 290 291 291 292 292
296 295 295 295 294 294 294 293 293 293 293 292 291 290 289 289 288 288 288 288 288 287 287 286 285 286 286 288 288 288 288 288 289 290 290 291 291 292
292 293 293 292 292 292 292 292 292 292 291 289 289 288 288 288 287 287 286 286 286 285 285 285 286 286 286 286 286 286 286 287 289 290 290 291 291 291
290 291 291 291 290 291 290 289 289 288 288 288 288 288 287 286 286 285 285 284 284 285 285 285 285 286 286 286 286 286 287 288 288 289 289 290 290 290
290 289 287 286 286 286 287 286 288 288 287 286 286 286 286 285 285 284 284 284 284 285 284 284 285 286 285 285 285 285 286 288 288 288 287 288 288 288
285 284 285 286 287 286 286 286 286 286 286 286 285 284 284 284 284 283 285 285 285 284 284 283 284 284 285 285 284 285 286 286 285 286 286 286 287 287
285 285 285 286 287 286 284 285 285 285 284 285 285 285 286 286 286 285 285 285 284 283 283 283 283 283 283 284 284 284 285 284 284 285 285 286 286 286
284 285 285 285 285 284 283 282 282 283 283 283 283 284 283 283 283 284 284 283 283 282 283 282 283 282 281 282 283 284 283 283 283 283 284 284 285 285
283 283 283 284 284 283 283 282 283 284 284 283 283 283 283 283 283 283 283 283 282 282 283 283 282 282 281 281 281 282 282 282 282 283 283 283 284 284
282 282 282 282 282 283 283 282 284 284 282 282 282 282 282 282 282 282 281 281 281 281 281 281 281 281 281 281 281 282 282 282 282 282 283 283 283 284
282 283 283 283 282 281 282 283 283 282 282 282 281 281 281 281 280 280 280 280 280 280 280 280 280 280 280 280 281 281 282 282 282 283 283 283 283 284
281 281 280 281 281 281 282 282 281 281 281 281 281 280 280 280 279 279 279 279 279 279 279 280 280 280 280 279 280 281 281 282 282 282 283 283 283 283
282 281 279 280 280 281 281 281 281 281 281 280 280 280 280 280 280 279 279 279 279 279 280 281 281 280 280 280 279 280 281 281 282 282 282 282 282 282
282 281 279 279 280 280 280 281 281 280 280 280 279 279 279 280 279 279 279 279 278 279 279 280 280 280 280 281 281 281 281 281 282 282 282 281 282 283
282 281 279 279 279 280 280 280 280 280 279 279 279 279 279 279 279 278 278 278 278 279 279 280 280 279 278 279 281 281 281 282 281 281 282 282 282 283
279 280 279 279 278 279 279 279 279 279 279 279 279 279 279 278 278 278 278 278 278 279 279 280 280 279 278 279 280 281 281 281 281 281 281 282 283 284
281 279 278 278 278 278 278 278 278 279 279 279 279 279 278 278 278 278 278 278 279 279 277 278 280 279 280 280 280 281 281 281 282 282 282 283 284 284
281 280 279 278 278 278 278 278 277 278 278 278 278 278 277 277 277 277 277 277 277 277 277 278 279 279 279 280 281 281 281 282 282 283 284 284 284 285
279 279 279 278 278 278 278 277 277 277 277 277 277 277 276 276 276 277 277 277 277 277 277 278 278 279 278 280 281 281 281 281 282 284 284 284 284 284

GFSNE_925_thetae_084.txt.gz
Theta_e
319 319 317 316 316 316 314 315 313 311 307 302 302 302 303 301 301 301 302 303 303 302 300 299 299 299 299 299 298 298 298 298 298 298 297 297 298 298
316 311 311 310 311 311 311 311 309 309 306 302 300 300 298 297 298 299 300 301 300 299 298 297 297 297 297 296 296 296 296 295 295 295 296 297 297 298
309 307 306 305 305 304 305 304 304 304 303 296 296 295 295 295 296 296 296 296 296 296 295 295 295 295 294 294 294 293 293 293 294 294 295 295 295 296
304 304 302 302 302 302 302 303 301 300 299 296 293 293 293 293 293 293 293 293 293 294 291 291 291 292 292 291 291 292 292 292 293 293 293 293 293 294
301 301 300 299 298 297 297 297 296 296 297 295 291 291 291 292 292 292 292 292 288 288 288 289 289 288 289 289 290 291 291 291 291 291 291 291 292 292
297 297 295 295 295 295 295 294 294 294 294 293 291 291 290 290 289 288 288 288 288 287 287 287 286 285 286 286 288 288 288 288 289 290 290 291 292 292
292 292 292 293 293 292 292 292 292 292 290 290 289 288 288 287 287 286 286 286 286 285 285 285 285 285 286 286 286 286 286 288 289 290 290 291 291 291
291 292 292 292 291 291 290 290 289 287 288 288 288 287 286 286 285 285 285 284 283 284 284 285 285 286 286 286 286 286 286 286 288 289 289 290 290 290
290 290 288 286 286 286 287 287 287 288 287 286 286 285 285 285 285 284 283 284 284 285 284 284 285 285 285 286 286 286 286 287 288 288 287 288 288 288
285 285 285 287 287 286 285 286 286 285 286 285 284 284 284 284 284 284 284 285 285 284 284 283 284 284 285 285 284 284 287 286 286 286 286 287 287 287
284 285 286 286 286 285 283 284 285 284 284 285 285 285 285 285 285 285 284 285 284 283 283 282 283 282 283 283 283 284 286 286 284 285 285 286 286 286
285 285 286 285 285 284 283 282 282 282 282 283 283 283 283 283 283 283 283 283 283 282 283 282 282 281 282 283 283 283 284 284 284 284 283 284 285 285
283 283 283 284 284 284 283 281 284 284 284 283 282 282 283 283 283 283 283 282 282 282 282 282 282 282 281 281 281 282 283 283 283 283 283 283 283 284
282 282 283 283 283 283 283 282 284 284 282 282 282 282 282 282 281 281 281 281 280 281 281 281 281 281 281 280 280 281 281 281 282 282 283 283 283 283
282 282 283 283 282 281 282 284 284 283 282 282 282 281 281 280 280 280 280 279 279 279 280 280 280 280 280 279 280 280 281 281 281 282 282 282 283 283
281 281 281 281 281 281 282 282 282 281 281 281 281 280 280 280 280 279 279 279 279 279 280 280 279 279 279 279 279 279 280 281 281 281 281 282 282 283
282 282 280 280 280 280 281 281 281 281 281 281 280 280 280 280 279 279 279 279 279 279 279 281 280 280 280 280 279 280 280 280 280 282 281 281 282 283
282 282 280 279 280 280 280 280 281 281 281 280 280 280 279 279 279 279 279 278 278 279 279 280 280 280 280 281 281 281 281 280 282 281 281 280 280 282
283 282 281 279 279 279 279 280 280 280 280 279 279 279 279 279 279 279 278 278 278 278 279 279 279 278 276 277 279 281 281 281 281 280 281 281 281 282
281 280 279 279 279 279 278 279 279 279 279 279 279 279 279 279 279 278 278 277 277 278 278 279 279 279 277 277 279 279 280 280 281 281 281 281 282 282
282 281 281 279 279 278 278 278 278 278 278 279 279 279 278 278 278 277 277 277 278 278 277 278 280 279 279 278 278 279 280 280 281 281 281 281 282 283
282 282 281 280 280 279 278 278 278 278 278 277 278 278 278 277 277 276 276 276 277 277 277 278 279 279 278 277 278 279 279 280 281 281 282 282 282 284
281 280 280 280 280 279 278 278 278 278 277 277 277 277 277 277 276 276 275 276 276 276 276 276 277 277 277 277 279 280 280 280 281 281 282 283 284 284

GFSNE_925_thetae_087.txt.gz
Theta_e
324 321 318 317 315 314 315 314 314 315 312 304 302 302 302 302 303 302 302 303 304 305 305 305 302 301 300 299 299 298 299 299 299 299 299 299 298 300
316 315 312 310 310 310 310 310 310 310 309 303 300 299 299 299 299 300 301 302 303 303 301 300 299 298 298 297 297 297 297 296 297 296 296 297 297 298
312 313 309 307 306 305 305 305 305 305 304 297 298 297 297 296 297 297 298 298 299 298 298 297 296 296 295 295 294 294 294 294 294 295 295 296 296 297
308 306 304 303 303 302 302 303 302 301 301 297 294 294 295 295 295 295 295 295 294 294 293 291 292 292 292 292 292 292 292 292 293 294 294 294 294 294
303 302 301 301 301 300 300 299 297 297 298 296 292 293 293 293 293 292 292 292 290 289 289 289 289 289 289 288 290 291 291 291 292 292 292 291 292 292
300 299 299 298 298 297 295 295 295 295 295 294 292 291 290 290 290 288 288 288 287 287 287 287 286 286 286 285 286 287 288 288 288 290 290 291 292 292
294 294 294 294 294 293 293 293 293 293 292 292 290 289 288 288 288 286 286 286 286 285 285 285 285 285 286 286 286 286 286 288 289 290 291 291 291 291
293 293 293 293 292 292 291 290 290 289 289 288 287 288 286 285 285 285 285 285 286 284 284 285 285 285 286 286 286 286 286 287 287 288 289 290 289 289
292 291 290 288 288 288 288 288 288 288 286 286 286 285 285 285 285 284 283 284 285 285 284 285 285 285 285 285 286 286 286 286 288 288 287 288 288 288
287 286 286 287 286 285 286 286 286 286 285 285 284 284 284 284 284 284 284 284 285 284 284 285 284 285 285 285 284 285 286 287 287 286 286 287 287 287
285 286 286 286 287 283 283 284 285 285 285 285 285 285 285 286 285 285 285 285 285 284 283 283 284 283 283 283 284 285 286 286 286 284 285 285 286 286
285 285 285 285 285 284 282 282 282 283 283 283 282 283 283 284 283 284 283 283 283 284 283 283 283 282 284 283 283 283 284 284 284 284 285 284 285 285
283 283 284 285 284 284 283 282 283 283 283 283 282 282 283 283 283 283 283 282 282 282 282 282 282 282 282 282 282 283 282 284 284 284 284 283 283 284
283 282 282 283 283 284 283 283 285 283 282 282 282 282 282 282 281 281 281 281 280 280 280 280 281 281 281 282 282 282 282 282 282 283 282 284 283 283
282 283 283 284 283 281 283 284 284 283 282 282 282 281 281 281 280 280 280 279 279 279 279 279 280 280 280 280 281 280 281 282 281 282 283 282 283 283
283 282 281 281 281 281 282 283 282 282 282 282 281 281 280 280 280 280 280 280 279 280 280 280 280 279 279 279 279 279 280 281 282 282 281 282 282 282
282 282 280 280 280 280 281 281 281 281 282 281 281 280 280 280 280 280 279 279 278 278 279 281 280 280 280 280 279 280 281 281 281 281 281 281 282 282
283 282 281 280 280 280 280 280 281 281 281 281 280 280 280 280 280 280 279 279 277 277 278 279 279 279 280 281 281 281 281 281 281 281 281 281 281 282
283 283 282 281 280 279 279 279 280 280 280 280 280 279 279 279 280 280 279 278 277 277 278 279 279 277 279 281 281 280 281 281 281 281 281 282 282 282
283 282 281 280 280 279 279 279 279 279 279 280 279 279 279 279 279 279 279 277 277 277 277 278 279 278 278 279 279 279 279 280 280 281 281 282 282 282
282 282 281 281 280 279 279 278 278 278 279 279 279 279 279 279 278 278 278 278 278 279 278 278 279 278 278 277 277 279 279 280 280 281 281 282 282 282
283 283 282 282 281 280 280 279 278 278 278 278 278 278 278 278 278 277 277 277 276 276 276 277 277 278 277 277 278 278 279 279 280 280 281 281 282 283
283 283 282 281 281 280 280 279 279 278 278 278 278 277 277 277 277 277 277 276 275 275 275 276 277 277 277 277 278 278 279 280 281 281 282 282 282 283

GFSNE_925_thetae_090.txt.gz
Theta_e
327 325 323 321 319 318 317 317 318 319 317 307 307 300 303 302 302 302 303 304 305 305 305 306 305 302 301 300 300 300 299 299 299 300 300 300 300 300
322 320 317 314 312 311 311 312 312 313 313 304 299 299 300 299 299 300 301 302 303 303 303 303 302 300 299 299 298 297 297 297 297 297 297 298 298 298
314 311 310 310 309 307 307 307 306 308 309 298 299 299 297 296 297 298 299 300 300 300 299 299 298 298 298 296 295 295 294 294 295 295 295 296 297 297
307 306 307 306 304 304 302 302 302 303 304 300 296 296 295 296 296 297 297 296 294 295 295 295 293 293 293 293 293 293 292 292 293 294 294 294 294 294
303 303 303 302 302 301 300 299 299 299 300 300 295 294 294 294 294 293 292 291 291 292 290 290 290 290 290 289 288 290 291 292 292 292 292 292 292 293
301 301 301 300 299 297 297 296 296 297 298 298 296 295 295 293 292 292 292 290 289 287 287 287 287 287 287 286 285 286 288 288 288 290 290 291 292 292
298 298 296 296 296 295 295 295 295 296 297 297 296 295 294 293 293 290 290 289 288 287 287 287 287 287 288 287 286 286 286 287 288 290 291 291 291 291
293 293 293 293 293 293 294 293 292 293 293 294 293 294 291 290 288 288 288 288 289 286 287 288 287 288 287 287 287 286 287 287 287 289 289 290 290 290
293 293 292 292 291 291 290 289 289 286 288 289 289 289 288 287 287 286 286 286 287 287 286 288 287 287 287 286 286 286 286 286 288 288 288 288 288 288
291 289 288 287 286 287 287 287 287 287 286 286 287 286 286 285 285 285 286 286 287 286 285 288 287 287 287 286 285 285 286 287 287 287 287 287 287 287
286 287 288 288 285 284 286 286 286 286 286 285 285 285 284 285 285 286 287 287 288 286 285 285 287 286 287 286 285 285 287 287 287 286 286 286 286 286
286 286 285 287 287 283 284 285 285 285 284 284 284 283 284 285 284 285 285 286 286 288 285 285 285 285 287 286 285 285 285 285 285 285 285 285 285 286
286 286 286 286 285 285 283 283 284 284 284 284 284 284 284 284 284 283 283 283 284 285 284 283 283 283 284 285 285 285 285 285 285 285 285 285 284 284
284 284 284 284 284 284 284 283 285 284 283 283 284 284 284 284 283 282 282 281 282 281 282 281 282 282 282 283 284 285 285 285 284 285 285 285 285 284
283 283 283 284 284 283 283 284 285 284 283 283 284 284 283 282 281 281 281 280 280 280 280 280 280 281 281 281 282 282 283 284 283 283 284 284 284 284
283 284 283 283 284 282 283 285 284 283 283 284 284 283 282 281 282 282 281 281 281 281 281 280 280 280 280 281 281 282 282 283 284 283 283 283 283 283
283 282 282 282 283 282 282 283 282 282 283 283 283 283 283 282 282 282 281 281 280 281 282 281 280 280 280 280 280 282 283 283 283 283 283 283 283 284
283 283 282 281 282 282 282 282 282 282 282 283 283 283 283 282 282 282 281 280 280 281 281 281 281 281 282 282 282 281 283 283 283 283 283 283 283 284
284 283 283 282 282 281 282 282 282 282 282 282 282 282 282 282 281 281 281 280 280 280 281 280 280 280 281 283 283 282 282 282 283 283 283 283 283 284
285 285 284 283 282 281 281 281 281 281 281 281 281 281 281 281 281 281 280 280 280 280 280 280 280 280 280 281 281 281 281 280 281 282 282 283 283 283
285 284 283 282 281 281 281 281 280 281 281 280 280 281 281 281 281 281 280 280 280 279 280 280 281 280 279 278 278 280 281 281 281 280 281 282 282 282
284 283 283 282 282 281 281 280 279 279 279 279 279 280 280 280 280 280 280 280 279 279 279 279 279 278 278 278 279 280 281 282 281 281 281 281 281 283
285 284 284 283 282 282 281 281 280 280 279 279 279 279 278 278 279 279 279 279 279 278 278 278 278 279 279 279 279 279 279 280 281 282 282 283 283 283

GFSNE_925_thetae_093.txt.gz
Theta_e
329 327 326 324 323 323 321 320 320 319 317 309 307 302 303 302 302 303 303 304 305 306 307 306 306 306 305 304 302 301 300 300 300 300 300 301 300 301
325 324 321 321 318 317 316 315 315 315 316 307 302 300 301 302 300 301 302 302 303 303 304 303 303 302 301 300 299 298 298 297 297 298 298 298 298 298
319 318 316 313 313 312 311 310 310 310 311 301 301 300 299 299 299 298 300 300 300 301 300 299 299 298 298 297 296 296 295 295 295 295 296 296 297 297
313 311 310 309 309 308 306 306 306 306 306 302 298 298 298 298 297 296 297 296 295 297 296 296 296 295 295 295 294 294 293 292 293 294 294 294 294 294
308 306 306 305 304 303 302 302 302 302 303 302 297 296 296 295 295 295 294 293 292 293 292 291 291 290 290 289 289 288 289 291 292 292 292 292 293 293
303 303 302 301 301 301 300 299 299 300 300 300 298 296 296 294 295 295 293 291 290 289 288 288 287 287 287 287 286 286 286 288 288 289 290 291 292 292
300 300 299 300 299 297 297 297 298 298 299 298 297 296 295 294 295 291 291 290 289 288 288 288 287 288 288 288 287 286 287 286 288 290 291 291 292 292
296 296 295 295 295 295 295 295 295 296 297 297 296 296 293 292 290 289 289 289 290 288 287 288 288 288 288 288 288 287 286 287 288 288 289 290 291 290
294 294 294 293 293 293 291 290 291 292 292 292 292 291 290 289 289 287 287 287 288 288 286 288 288 288 288 287 287 287 287 287 287 288 288 288 289 289
293 292 292 291 290 289 288 288 287 287 287 288 289 287 288 286 286 285 286 287 287 287 286 288 289 288 288 287 287 286 286 287 288 287 287 287 288 288
289 289 288 288 286 287 287 287 288 287 285 286 287 286 286 286 287 287 288 288 289 287 286 286 288 286 287 287 286 285 286 288 288 287 287 287 287 287
287 288 288 288 284 285 286 286 286 286 285 285 284 283 285 284 285 286 286 287 288 288 286 285 285 284 285 288 286 286 286 286 286 286 285 286 286 286
287 287 286 287 287 284 284 284 285 285 285 285 284 284 285 285 284 284 284 284 285 285 285 283 283 283 284 284 284 285 285 285 285 285 285 286 286 285
286 286 287 286 285 286 283 284 284 285 285 284 285 285 285 285 284 283 283 283 283 282 283 282 282 282 283 283 283 285 285 285 284 284 285 285 285 286
284 284 284 285 284 285 285 285 286 284 284 284 285 285 284 284 283 282 282 281 281 281 281 281 281 281 281 282 282 282 282 283 283 283 284 284 284 284
284 284 284 284 285 284 284 285 286 285 284 284 285 285 284 282 282 282 282 282 281 281 282 281 280 280 280 281 281 282 282 282 283 283 283 283 283 283
284 284 283 283 283 283 283 285 285 283 283 283 284 284 283 283 283 282 282 281 281 281 281 282 281 280 280 280 280 281 281 282 283 284 284 283 283 283
284 283 283 282 283 283 283 283 283 283 283 284 284 284 284 283 283 282 282 281 281 281 281 281 281 281 281 282 283 282 282 282 283 283 283 283 283 283
284 283 283 283 282 282 283 283 283 282 283 283 283 283 283 283 282 282 282 281 281 281 280 281 280 280 280 281 282 283 283 283 282 282 283 283 283 283
285 285 284 284 284 283 282 282 282 283 283 282 282 283 283 282 282 282 281 281 280 280 280 280 280 280 280 280 281 281 281 282 281 281 281 281 282 282
286 286 286 285 284 283 282 282 282 282 282 282 281 282 282 282 281 281 281 282 281 281 280 280 280 281 281 280 279 279 280 282 282 281 281 280 281 281
286 286 286 285 284 283 282 281 281 281 281 281 281 280 281 281 281 281 281 281 281 280 280 280 279 279 279 278 278 278 279 279 280 281 281 281 281 281
287 286 285 284 284 283 282 282 281 281 281 280 280 280 280 280 280 280 280 280 280 280 279 279 278 278 279 279 279 279 279 279 280 280 281 282 282 283

GFSNE_925_thetae_096.txt.gz
Theta_e
330 329 328 328 327 325 324 323 321 318 316 308 306 303 303 303 302 303 304 303 304 306 307 307 307 307 306 305 304 303 301 300 300 300 301 301 301 301
328 328 327 326 324 323 322 320 319 318 314 308 304 303 302 302 302 301 301 301 303 303 303 303 303 303 303 302 300 300 299 298 298 298 299 299 299 300
323 322 323 320 317 317 316 314 314 313 311 302 303 301 301 300 300 299 300 300 301 301 299 300 299 299 298 298 297 297 296 296 296 296 296 296 297 297
318 316 316 314 312 311 311 310 309 309 309 303 300 300 299 299 299 298 297 297 297 297 297 296 296 296 295 295 294 294 294 292 291 293 294 294 294 294
312 311 311 309 308 308 307 306 305 305 306 305 299 298 297 297 296 296 295 294 294 293 292 292 291 290 290 289 289 288 288 289 289 290 291 292 293 293
307 307 306 305 305 304 303 303 302 302 302 302 299 297 297 296 296 295 293 291 290 289 289 288 288 287 287 286 286 286 286 286 288 288 289 290 291 292
303 303 302 302 301 301 301 300 299 300 300 298 297 296 295 294 294 293 292 290 289 288 287 287 288 287 287 288 287 287 286 287 287 289 290 291 292 292
299 299 299 299 298 297 297 297 298 298 299 297 297 296 295 294 292 290 289 289 289 288 287 286 288 287 288 288 288 288 287 287 287 287 288 290 291 291
297 297 295 294 294 295 294 295 296 296 297 297 296 294 292 290 289 288 287 287 287 287 287 288 288 288 288 288 288 287 287 287 287 287 289 288 288 289
294 294 294 293 293 291 290 288 288 289 290 290 290 289 289 288 288 287 286 287 287 287 286 287 288 288 288 288 287 287 286 288 287 288 288 287 288 288
292 292 292 291 290 288 287 288 287 286 287 287 288 287 287 286 286 285 287 288 288 287 286 286 287 287 286 287 287 286 285 288 288 288 288 287 287 287
289 289 289 288 286 288 287 287 287 286 285 285 284 284 284 284 286 287 287 287 287 287 286 285 284 284 285 287 286 286 286 286 286 287 287 287 287 287
288 287 288 289 286 285 286 286 286 286 285 284 284 284 285 284 284 285 285 285 286 286 284 284 283 283 283 283 284 285 285 285 285 285 285 285 286 286
287 287 286 287 287 285 284 285 286 285 284 284 284 284 284 285 284 284 284 283 283 283 284 282 282 282 283 282 282 284 284 284 284 284 284 284 284 285
286 286 286 287 286 286 285 285 286 285 284 284 284 285 285 285 284 284 282 282 282 281 281 281 280 281 281 281 282 282 282 282 283 283 283 283 283 283
285 285 285 285 285 284 285 285 286 284 284 284 284 285 285 284 284 282 282 282 281 281 281 282 281 281 280 280 280 281 281 281 283 283 283 283 283 283
283 284 285 285 285 285 283 284 285 286 285 284 285 285 285 284 283 282 282 281 281 281 281 282 282 282 281 280 280 280 281 282 282 282 283 283 283 283
285 284 284 283 283 283 283 283 285 285 284 283 283 284 284 284 283 283 282 282 281 281 281 281 281 281 281 281 282 282 281 283 283 283 283 282 282 282
286 284 283 283 283 282 283 283 283 283 283 283 284 284 284 284 283 283 282 282 281 281 281 280 280 280 280 280 280 282 282 283 283 283 282 281 281 282
286 285 284 283 283 283 282 283 283 283 283 282 283 283 283 283 283 282 282 281 281 281 280 280 280 280 280 280 280 280 280 280 280 280 281 281 281 281
286 286 285 284 284 284 284 283 282 282 282 283 283 282 282 283 283 282 282 282 282 281 280 280 280 280 280 280 280 279 279 278 279 280 280 281 281 281
286 286 285 285 285 285 285 284 283 282 282 282 282 282 281 282 282 282 281 281 281 281 281 281 280 280 279 279 278 278 278 278 279 279 280 280 280 281
286 286 286 286 286 286 285 284 283 282 282 282 282 282 281 281 281 281 281 281 281 280 280 280 280 279 278 278 278 279 279 279 279 280 280 280 281 281

GFSNE_925_thetae_099.txt.gz
Theta_e
329 330 330 329 329 328 327 326 322 318 316 307 306 305 303 303 303 304 304 305 306 307 307 307 307 308 308 307 306 304 303 302 301 301 301 301 301 301
326 327 329 328 327 326 325 324 323 320 316 309 306 304 303 302 303 302 302 302 302 303 304 304 304 304 304 303 302 301 300 300 299 299 299 299 299 300
322 322 324 323 323 321 321 321 320 318 314 304 304 302 302 301 302 301 300 301 301 301 301 300 301 300 299 298 298 297 297 297 297 297 297 297 298 297
318 319 320 319 318 318 316 314 314 313 312 304 302 300 300 300 300 300 299 298 298 297 298 298 297 296 296 295 295 295 295 294 293 293 293 294 294 294
315 314 315 314 313 312 311 310 310 309 307 306 300 299 299 298 298 297 296 295 295 294 294 293 292 291 291 291 290 289 289 289 288 288 289 291 292 293
311 310 310 310 310 309 308 307 305 304 304 304 301 299 298 296 296 296 293 292 290 290 289 289 288 287 287 287 287 286 286 286 287 288 289 290 290 292
306 306 306 305 305 305 304 303 302 302 302 301 300 297 296 295 296 295 293 291 289 289 288 287 288 287 287 288 287 287 286 286 287 288 289 290 291 292
303 302 302 301 301 300 300 300 300 300 300 299 299 297 295 295 294 292 291 289 288 288 287 286 287 287 288 288 288 288 287 287 287 288 288 289 290 291
300 299 298 298 298 298 297 297 297 298 299 298 297 296 295 294 293 290 289 288 288 287 287 288 288 287 288 288 288 287 287 287 287 287 289 289 288 288
297 297 296 295 294 294 295 295 295 295 296 297 296 295 293 292 290 289 287 286 287 287 286 288 288 288 287 287 287 287 286 288 287 289 288 287 288 288
295 294 294 294 292 291 290 289 288 289 288 289 289 289 289 288 287 286 286 286 287 287 286 286 286 287 286 287 287 286 285 287 288 288 288 288 288 287
292 291 292 292 290 289 288 287 287 287 287 287 287 287 287 287 286 286 286 288 287 286 286 286 285 285 285 286 286 286 286 286 286 287 287 287 287 287
289 289 289 289 289 289 287 287 287 286 285 284 284 285 284 285 285 286 286 286 287 286 285 285 284 283 283 283 284 284 285 285 285 285 285 285 285 286
288 288 288 289 287 286 285 286 286 286 285 284 284 284 285 284 284 284 284 284 284 285 284 283 283 282 282 282 282 284 284 284 285 284 284 284 284 284
286 286 287 288 287 287 284 286 287 286 285 284 284 284 284 285 284 284 284 283 283 282 282 282 281 280 281 281 281 281 282 284 283 284 283 283 283 283
285 285 286 287 286 285 286 286 286 285 285 284 284 285 285 285 284 284 283 282 281 281 281 281 281 281 281 280 281 280 280 281 283 283 282 283 283 283
284 285 285 286 286 285 284 285 286 285 284 284 284 284 285 285 284 283 282 282 281 281 281 281 281 281 281 281 280 280 280 280 282 282 282 282 283 282
285 284 285 285 285 285 284 283 284 285 286 285 284 285 285 285 284 283 282 282 281 281 281 281 280 281 281 281 281 280 280 281 283 283 283 282 282 282
286 285 284 284 284 283 283 284 283 284 285 285 284 283 284 284 284 283 283 282 282 282 281 280 280 280 280 278 280 281 281 281 282 281 281 280 280 282
288 287 286 284 283 283 283 283 283 283 283 284 283 283 283 283 284 283 283 282 282 281 281 281 280 280 280 279 280 281 280 280 280 280 279 280 280 281
288 287 287 286 285 284 283 283 282 282 283 283 282 282 283 283 283 283 283 282 282 281 281 281 281 281 280 280 279 279 280 279 279 278 279 279 280 280
286 286 286 286 286 285 284 284 284 283 282 282 282 283 283 283 283 282 283 282 282 282 282 282 281 281 280 280 279 279 278 278 279 279 279 280 280 280
286 286 286 285 285 285 285 285 285 284 283 282 282 282 282 282 282 282 282 282 281 281 281 281 280 280 280 279 279 278 278 278 278 278 279 280 280 281

GFSNE_925_thetae_102.txt.gz
Theta_e
327 328 328 329 329 328 328 328 325 319 315 308 309 308 307 305 304 305 306 307 308 309 308 307 308 309 310 311 310 308 306 304 303 302 302 301 301 301
319 323 325 326 326 327 328 327 325 322 316 310 306 306 305 304 303 304 304 304 304 304 304 305 305 305 306 305 304 303 302 301 301 300 300 300 300 300
317 319 321 323 324 324 324 323 322 321 316 305 305 303 303 302 302 302 302 301 301 301 302 301 302 301 300 300 300 300 299 299 299 298 298 298 298 298
317 317 317 319 319 319 320 318 318 317 315 305 302 301 301 301 300 300 300 299 299 299 299 299 298 297 297 298 297 297 296 296 296 296 296 296 295 294
314 315 315 315 315 316 315 314 313 312 311 309 301 300 299 299 299 298 298 297 296 296 295 295 294 294 294 294 293 293 292 290 289 288 288 290 291 293
311 312 312 311 311 311 311 309 310 308 307 305 302 299 299 298 298 297 295 294 292 291 291 290 289 288 288 288 288 288 287 287 287 288 289 289 289 291
308 308 308 308 307 308 308 308 306 304 304 303 300 298 297 296 296 295 294 293 290 290 289 288 288 287 287 288 287 287 286 286 287 289 290 290 291 291
303 304 303 303 303 303 303 302 302 302 302 302 299 298 297 297 296 295 293 289 288 289 288 287 287 287 287 287 288 288 287 287 288 288 289 289 290 290
300 300 300 300 299 299 299 299 298 299 300 301 301 299 298 297 296 294 292 290 289 287 287 286 287 287 288 288 288 287 287 287 287 287 288 289 288 288
298 298 298 298 297 296 297 296 296 297 298 298 298 298 297 296 294 294 292 290 287 287 286 288 287 287 287 287 287 287 287 287 288 288 289 288 287 287
296 296 296 295 295 293 293 293 292 292 292 294 295 295 294 292 291 290 288 287 286 286 286 286 287 287 287 287 287 286 286 287 289 288 288 288 288 287
294 293 293 293 292 291 290 288 288 289 289 289 289 288 288 288 287 287 287 286 287 285 286 286 285 285 286 286 286 286 286 286 287 287 287 287 287 287
292 291 291 291 290 291 289 287 287 287 287 287 287 287 287 286 286 286 286 287 288 287 286 286 285 284 284 284 285 285 285 285 285 285 285 285 285 285
290 290 289 290 289 289 288 287 287 286 285 284 285 284 284 285 285 285 285 286 287 286 286 285 285 284 283 283 283 284 284 284 284 284 284 284 284 284
287 287 287 288 289 288 287 285 287 287 285 284 284 284 285 284 284 284 284 284 284 283 283 283 283 282 282 282 282 282 282 283 283 283 283 283 283 283
287 286 286 287 288 287 286 286 287 287 285 285 284 284 284 284 284 284 284 283 282 282 282 281 281 280 281 281 281 281 281 280 283 283 282 283 283 283
287 285 286 287 288 286 286 286 286 286 285 284 284 284 285 285 284 284 284 282 281 281 281 281 281 281 281 281 281 281 281 280 281 282 282 283 283 283
287 285 285 285 286 286 285 284 285 285 286 284 284 284 284 284 284 284 283 282 281 281 281 281 281 280 280 281 280 280 280 280 281 282 282 281 281 281
287 285 284 284 284 285 285 285 284 284 284 286 285 284 284 285 284 284 283 282 282 281 281 281 280 280 279 278 280 281 281 281 281 281 281 280 280 280
288 286 286 286 285 284 284 283 283 283 283 284 285 285 284 284 284 284 283 283 282 282 281 281 281 280 280 278 280 280 281 280 280 280 280 279 279 280
289 288 288 288 287 286 285 284 283 283 283 283 284 284 284 283 283 283 283 283 283 282 281 281 282 281 280 280 278 279 280 280 280 279 279 279 279 279
287 288 288 288 287 287 286 286 284 283 283 282 283 283 283 283 283 283 283 283 283 282 282 282 282 282 281 280 280 279 279 279 279 279 279 279 279 279
287 287 287 287 286 286 285 285 285 285 284 283 283 283 282 282 282 282 282 282 282 282 282 282 281 281 281 280 280 279 279 279 279 278 279 280 280 280

GFSNE_925_thetae_105.txt.gz
Theta_e
325 325 325 325 326 326 327 326 324 319 315 312 311 310 310 309 308 307 307 308 309 310 309 307 307 310 311 312 312 311 309 307 305 304 303 302 302 302
319 318 319 319 320 322 325 326 325 323 319 313 308 310 308 306 306 305 305 306 306 305 305 306 305 305 306 306 306 306 304 302 302 302 301 301 301 301
315 315 315 317 318 320 322 323 322 321 318 306 307 306 306 305 304 303 303 303 302 302 302 303 302 302 302 302 302 302 301 301 300 299 299 299 299 298
314 314 315 315 316 316 318 319 319 318 316 305 304 302 302 302 302 302 300 301 300 300 300 300 300 300 299 299 299 299 299 298 297 298 297 297 296 296
311 312 312 313 314 314 313 314 314 313 313 310 300 300 300 300 299 299 298 298 298 298 298 298 297 296 296 296 296 296 295 294 293 291 290 292 292 291
309 309 310 310 310 311 310 310 310 309 309 308 303 300 300 299 299 297 295 295 295 295 294 293 292 292 291 290 290 289 289 288 288 287 288 289 289 290
305 306 306 307 307 307 307 307 307 306 305 304 301 299 298 297 297 297 295 294 293 292 290 289 289 288 287 288 287 287 286 286 286 288 289 290 290 291
301 302 302 303 303 303 303 303 304 303 303 302 301 300 299 298 297 296 295 291 290 291 289 288 287 287 287 287 287 287 287 287 287 289 289 289 289 290
298 298 299 300 300 300 300 300 300 300 299 300 301 301 300 300 298 296 294 293 290 289 288 286 287 287 287 287 288 287 287 287 287 287 288 289 289 289
297 298 297 297 298 297 298 298 298 298 298 299 299 300 300 299 299 299 297 293 289 287 287 287 286 287 287 287 288 287 287 286 288 288 290 289 288 288
295 296 296 296 295 295 294 295 294 294 294 296 297 297 297 296 296 295 292 289 286 286 286 286 287 287 287 287 287 287 287 286 289 289 289 288 288 288
294 294 294 294 293 292 292 291 291 291 290 291 292 292 292 291 291 291 292 289 286 286 286 286 286 287 286 286 286 286 286 286 288 288 288 288 288 287
292 292 292 292 292 292 291 288 288 288 288 289 289 288 288 288 287 287 287 287 286 287 286 286 285 285 285 285 286 286 286 285 286 286 286 286 285 285
290 290 290 290 290 290 291 289 287 287 287 287 287 287 287 286 286 286 286 286 287 287 287 286 286 285 284 283 284 284 284 284 285 285 285 284 284 285
289 289 288 288 290 289 289 287 287 288 286 284 285 285 284 284 285 285 285 285 285 285 285 285 285 284 284 284 283 283 283 283 283 284 284 283 283 284
289 288 286 287 287 289 288 287 287 287 287 285 284 284 284 284 284 284 284 284 283 283 283 283 282 282 282 282 282 282 282 282 282 283 283 283 283 283
290 288 287 286 288 288 287 286 286 286 286 285 284 284 284 284 284 284 284 283 282 282 282 281 282 282 281 281 281 282 282 281 281 282 282 282 283 283
289 288 287 285 286 287 287 286 285 286 286 285 284 284 284 284 284 284 284 283 282 282 281 281 281 281 281 281 281 281 281 280 279 282 282 281 282 283
290 288 287 285 285 285 285 285 285 284 285 285 285 284 284 284 284 284 284 283 282 282 281 281 281 280 279 278 280 281 281 280 281 281 281 280 280 280
290 289 287 287 286 285 284 284 284 284 284 284 284 285 284 284 284 284 284 283 283 283 282 281 281 281 280 279 280 280 281 280 280 280 280 280 280 280
289 289 289 289 288 288 288 287 285 284 283 283 283 283 284 284 284 283 284 283 283 283 282 282 282 282 281 280 278 279 281 280 280 280 279 279 279 279
290 288 288 288 288 288 288 287 287 286 284 283 283 283 283 284 284 283 282 283 283 283 283 283 283 282 281 281 279 280 280 281 280 280 279 279 279 279
290 290 289 288 288 287 287 286 286 285 285 285 283 283 282 282 283 282 282 282 282 283 283 283 282 282 281 281 280 280 280 280 280 280 280 280 280 280

GFSNE_925_thetae_108.txt.gz
Theta_e
324 324 323 323 323 323 323 323 322 323 317 316 315 313 310 310 309 309 309 310 312 312 310 308 309 309 311 312 313 312 312 311 309 307 304 304 303 304
316 315 315 316 316 317 319 320 322 322 322 317 312 313 310 307 307 307 307 307 307 308 307 306 306 306 307 308 307 307 307 306 305 304 303 302 303 302
314 313 313 314 315 315 316 317 320 319 319 310 309 307 307 305 305 305 305 304 304 304 304 303 304 303 303 303 304 303 302 302 302 301 301 302 300 299
311 312 311 311 314 313 314 315 316 317 316 310 306 305 303 305 303 303 302 302 302 302 301 301 301 301 301 300 301 301 299 299 299 299 300 299 298 297
308 309 309 310 311 311 312 312 312 312 312 310 303 302 301 301 301 301 300 299 299 300 299 299 299 299 298 298 297 297 297 297 297 297 297 296 295 293
306 306 307 307 307 308 308 309 309 309 308 307 303 301 301 300 300 299 297 297 297 298 297 296 296 295 294 294 294 294 293 291 289 288 288 288 288 290
303 303 303 303 303 304 305 305 306 306 305 304 302 300 299 298 298 297 296 295 294 295 294 294 293 291 291 290 289 288 288 287 287 287 289 289 289 290
299 299 299 300 300 301 302 302 302 302 302 302 302 301 301 299 298 298 295 290 290 292 292 291 290 288 287 287 287 287 287 286 287 289 290 289 290 290
297 298 298 299 299 299 299 300 300 300 300 300 300 301 301 301 300 297 295 294 293 293 290 288 287 287 287 287 288 288 287 287 288 289 289 289 289 289
296 296 297 297 297 297 297 297 297 297 298 298 299 299 300 300 300 300 299 295 291 290 289 287 287 286 287 287 289 288 287 287 287 287 288 290 289 288
295 296 296 295 295 295 295 294 294 294 294 295 296 297 298 298 298 297 294 291 287 287 287 286 286 286 286 287 288 288 287 287 288 288 290 289 288 288
294 294 294 293 293 293 293 291 291 291 291 291 293 294 294 293 294 294 296 293 289 287 287 286 286 287 287 287 287 287 287 287 289 289 289 288 288 287
293 292 292 292 292 292 292 292 289 288 289 289 289 289 290 290 290 290 290 291 290 287 286 286 286 286 286 285 286 286 286 286 287 288 287 287 287 286
294 291 291 291 291 291 291 291 289 288 287 287 287 287 287 287 286 286 286 287 287 287 287 286 287 286 285 284 285 285 285 285 285 285 285 285 285 285
294 292 290 288 288 290 290 289 288 288 287 286 286 286 286 286 285 286 286 286 286 287 286 286 286 286 285 285 284 284 284 284 284 284 284 284 284 284
293 291 290 287 287 287 290 288 287 286 287 287 286 284 284 284 284 284 284 284 284 284 285 285 285 284 284 284 284 284 284 283 283 283 283 283 283 284
290 290 289 288 286 287 288 288 287 286 286 287 286 284 284 284 284 284 284 283 283 283 283 283 283 282 282 282 282 283 283 282 282 282 282 283 284 283
290 290 289 288 287 286 286 287 286 286 285 286 286 285 284 283 284 283 284 284 283 283 282 282 282 281 281 282 282 282 282 282 281 280 281 281 283 284
292 291 290 289 288 286 285 285 285 285 285 285 285 285 284 283 283 283 283 283 283 283 282 281 281 281 279 278 281 281 281 281 280 280 281 281 281 282
291 291 290 289 288 287 286 285 285 284 284 284 284 284 285 283 283 283 284 283 283 283 282 281 281 281 280 279 280 280 281 281 281 281 281 281 280 280
291 290 290 289 289 289 289 288 287 287 285 284 284 284 284 284 284 283 283 284 284 283 282 282 283 282 281 280 279 280 281 281 281 281 280 280 280 280
292 292 291 290 289 288 288 288 288 287 286 286 285 283 283 283 283 284 284 283 284 283 283 283 283 282 281 281 280 280 280 281 281 280 280 280 280 280
290 290 290 290 289 289 288 288 287 287 287 286 285 285 284 282 282 283 283 283 283 283 283 283 282 281 281 281 281 280 280 281 281 281 280 280 280 280

GFSNE_925_thetae_111.txt.gz
Theta_e
324 322 321 321 321 321 321 321 322 322 321 319 318 318 315 312 310 310 310 312 314 313 313 312 310 309 310 312 313 312 316 314 311 309 307 305 307 306
315 314 314 314 314 314 315 316 317 317 318 318 317 316 314 310 309 308 308 309 310 309 309 309 307 307 308 309 308 310 310 310 308 306 305 305 306 304
313 313 312 311 312 313 314 315 315 316 316 315 314 314 311 311 308 307 306 306 306 305 305 305 305 304 305 306 305 305 306 306 305 305 304 305 303 301
310 310 309 309 310 312 312 312 313 314 312 313 310 309 307 306 306 305 304 304 304 303 302 303 302 302 303 303 303 303 303 302 302 302 303 302 300 299
307 307 308 308 308 307 308 308 310 311 311 310 307 305 303 303 302 302 302 301 300 300 301 301 300 300 300 300 299 299 299 299 299 300 300 298 298 297
305 305 305 305 305 305 305 306 306 308 308 307 305 302 301 301 301 301 299 298 298 299 299 299 298 298 298 297 296 296 296 296 295 295 296 295 294 292
302 302 302 302 302 302 302 303 303 305 305 305 303 301 300 299 299 299 298 297 297 297 296 296 295 295 295 293 293 292 291 290 289 289 288 288 288 292
300 300 299 300 300 300 300 301 301 301 302 302 302 301 302 302 300 299 297 293 291 294 294 293 293 292 291 290 290 288 287 287 287 290 292 291 290 291
298 298 298 298 298 298 298 299 299 299 299 299 299 300 300 301 301 298 297 295 295 295 292 290 290 290 289 288 288 288 287 287 288 291 290 290 289 290
296 296 296 296 297 297 297 296 297 297 296 296 297 298 298 299 299 300 299 296 293 293 291 289 289 287 287 287 288 289 288 287 287 288 290 290 289 289
295 295 296 296 296 295 295 294 294 294 293 294 295 296 297 298 298 297 295 293 289 289 289 288 287 286 286 287 288 289 287 287 287 288 289 291 289 288
295 294 294 294 294 294 294 293 291 291 291 291 292 293 294 294 295 295 295 293 291 289 289 287 286 286 287 286 287 288 288 287 288 290 290 290 289 288
295 295 293 293 293 293 293 293 291 289 288 289 289 290 291 291 291 292 292 292 292 291 289 287 286 286 286 285 286 287 287 287 288 289 289 288 288 287
295 294 293 291 291 291 292 292 291 288 288 287 287 287 287 287 287 288 289 289 289 289 288 287 286 286 286 285 286 285 286 286 286 288 288 287 287 287
295 294 292 291 289 289 291 290 290 288 288 287 286 286 286 286 286 286 285 286 286 286 286 286 286 286 286 286 284 284 285 285 285 285 285 285 285 285
294 294 292 290 288 287 288 289 289 288 287 287 286 285 284 284 284 285 285 285 285 285 285 285 285 286 285 285 284 284 285 284 284 285 284 284 284 284
292 291 291 290 288 287 287 287 288 287 286 286 286 286 284 284 284 284 284 284 283 283 283 284 284 283 284 284 283 284 284 283 284 283 283 283 284 284
291 290 290 290 288 287 286 286 286 287 286 286 286 285 285 284 283 283 283 283 283 283 283 283 282 282 283 283 283 283 283 283 283 282 282 281 282 284
292 292 291 291 289 289 288 286 285 285 285 285 285 285 285 284 283 283 283 283 283 283 283 282 282 282 283 285 281 282 282 282 282 281 280 279 281 283
292 292 291 291 290 289 289 288 287 286 285 284 284 285 285 284 284 283 283 283 283 283 283 282 281 281 282 283 282 281 282 282 281 281 280 280 281 282
293 292 292 291 290 290 289 289 288 288 287 286 284 284 284 284 284 284 283 283 283 283 283 282 284 283 282 281 280 281 281 281 281 281 281 281 281 280
291 291 292 291 291 290 290 289 288 288 287 287 286 285 284 283 283 284 283 283 284 284 283 283 284 282 281 281 281 282 281 282 281 281 281 281 281 282
290 289 290 290 290 290 289 289 289 288 287 287 286 286 285 284 283 283 283 283 283 283 284 283 283 282 282 281 281 281 281 281 281 281 281 281 281 281

GFSNE_925_thetae_114.txt.gz
Theta_e
324 323 322 321 321 321 321 321 322 322 321 320 320 317 316 315 314 313 312 314 316 316 315 313 311 310 310 310 312 314 319 321 319 315 311 309 311 310
320 318 316 314 315 316 317 317 316 318 317 318 318 316 316 315 313 309 310 311 312 312 312 310 309 308 307 308 309 311 310 311 310 309 309 309 308 307
315 314 314 313 314 314 315 315 315 316 316 315 315 315 315 311 310 308 308 308 309 309 308 306 305 305 305 306 307 307 309 309 308 307 307 308 306 304
312 312 312 309 311 312 312 313 313 313 312 313 313 313 311 307 307 306 306 306 305 305 304 304 303 303 303 304 305 305 306 306 305 305 306 306 303 301
309 309 308 308 309 308 308 308 309 309 308 308 308 308 307 305 303 303 303 303 303 303 302 302 302 301 301 301 303 303 303 303 302 303 304 303 300 299
306 305 305 305 305 306 307 307 305 306 307 306 306 304 302 303 302 302 300 300 300 301 301 300 300 299 299 300 299 299 299 300 300 301 301 300 298 297
303 303 303 302 302 302 303 304 303 303 305 304 303 302 300 300 300 300 299 298 298 299 299 299 298 297 297 297 297 296 296 295 295 296 296 295 293 295
301 300 300 300 299 300 300 300 300 301 301 301 301 301 301 301 300 300 298 295 294 297 297 296 295 295 294 294 294 292 291 290 290 290 290 290 290 293
299 299 298 298 298 298 298 299 298 298 299 299 298 300 299 300 300 299 298 297 296 296 293 291 293 292 291 290 290 289 288 288 288 291 292 292 291 293
298 297 297 297 297 297 297 297 296 296 296 295 296 297 297 298 298 298 299 296 294 294 292 291 291 290 290 289 288 289 289 288 289 292 292 291 290 292
297 296 296 296 296 296 296 296 295 293 294 293 294 295 296 297 297 297 296 293 291 291 291 290 289 289 288 288 289 290 289 288 288 288 291 291 291 290
297 296 296 295 295 295 294 294 294 293 291 291 292 292 294 294 295 294 294 293 292 290 291 289 288 288 288 287 288 289 288 288 288 289 290 291 290 290
296 295 295 295 294 293 293 293 292 291 289 289 289 289 290 291 291 292 292 292 293 293 292 289 288 287 288 287 286 288 288 288 288 290 291 291 290 289
296 295 294 293 292 292 292 292 292 291 288 288 287 287 287 288 288 289 289 290 291 291 290 289 288 287 287 288 287 286 287 287 287 289 290 290 289 288
295 295 295 293 291 290 290 291 291 291 289 288 287 286 286 286 286 286 286 287 287 288 288 287 287 286 286 288 287 286 285 286 286 286 288 288 288 287
294 294 294 292 291 289 288 290 290 289 289 288 288 287 285 285 285 285 285 285 285 285 285 285 285 285 285 285 285 285 286 286 285 285 285 285 285 285
293 293 292 291 290 289 288 288 289 288 288 288 287 287 286 285 285 284 284 284 286 286 285 285 285 285 285 285 285 285 285 285 284 284 285 285 285 285
292 292 290 290 290 289 289 288 288 287 287 287 287 287 286 286 285 284 284 284 285 285 285 284 283 283 283 284 284 284 284 284 284 284 283 283 284 284
294 293 292 291 291 290 289 289 288 287 286 286 286 286 286 285 285 285 284 285 285 285 285 284 284 284 286 288 284 282 284 283 283 283 283 283 283 284
294 293 292 292 291 290 290 289 289 287 286 285 285 285 285 285 285 285 285 285 285 285 285 284 283 284 285 287 286 283 282 283 282 283 283 282 283 283
294 293 293 292 292 291 290 289 289 288 288 287 286 285 284 285 285 285 285 285 285 285 285 285 284 283 283 283 282 283 282 281 282 282 283 282 283 283
292 292 292 292 291 291 290 290 289 288 288 287 287 286 285 284 285 285 285 285 285 285 285 284 284 283 282 282 283 284 283 282 281 281 281 282 282 284
291 290 290 290 290 290 290 289 289 288 288 288 287 286 286 285 285 285 285 284 285 285 285 285 284 283 283 282 283 284 284 282 282 281 282 282 282 282

GFSNE_925_thetae_117.txt.gz
Theta_e
328 327 325 324 324 322 322 322 323 322 321 319 321 318 316 316 316 315 313 313 316 317 318 317 314 312 311 310 309 310 312 319 320 320 318 314 312 314
324 323 322 320 318 318 317 317 317 317 318 317 319 316 315 315 314 313 311 312 313 313 313 313 312 310 308 307 308 309 312 317 319 319 316 312 313 310
321 318 316 315 315 315 315 315 314 314 315 315 315 314 314 313 312 311 310 309 310 310 310 309 307 306 306 306 306 307 309 310 310 311 312 310 308 306
316 315 314 313 312 313 313 314 312 311 311 311 311 310 311 309 307 308 307 307 307 307 306 305 304 304 304 304 304 306 308 308 308 307 308 307 305 304
313 312 312 310 311 311 309 308 308 308 307 308 308 307 308 308 306 305 305 304 304 304 304 303 303 303 302 302 303 305 306 305 305 306 307 306 304 302
309 309 308 307 308 308 308 308 306 306 306 306 306 305 305 304 302 302 302 302 302 302 302 302 302 301 300 300 301 302 302 302 303 304 304 304 302 300
305 305 304 304 303 304 303 305 304 303 303 303 303 302 302 302 301 301 300 300 299 300 301 301 300 300 298 298 299 299 299 299 300 302 302 301 299 297
303 302 302 301 301 301 300 300 300 301 301 301 301 301 301 301 301 300 298 297 296 299 299 299 299 298 297 296 296 296 296 295 295 297 297 297 294 295
302 301 301 300 299 299 299 299 299 298 298 298 297 299 300 299 299 299 298 297 298 298 296 296 296 295 294 294 294 293 292 290 291 291 291 290 291 294
300 300 299 299 298 298 298 298 297 296 295 296 295 296 296 296 297 297 297 297 296 296 295 293 293 293 292 291 291 290 289 288 288 291 292 292 292 293
299 298 298 297 297 297 296 296 296 296 294 294 294 294 294 295 296 296 295 294 292 293 292 291 290 290 290 289 289 288 290 289 289 291 292 292 291 292
298 297 297 296 296 296 295 295 295 294 293 292 292 292 292 293 294 294 293 293 293 291 293 290 290 290 288 288 289 289 290 290 289 289 291 292 292 290
297 296 295 296 294 294 294 294 294 293 292 291 290 289 289 290 291 291 292 292 293 293 293 290 288 288 290 287 288 289 290 289 288 288 290 291 291 290
297 296 295 295 294 292 293 293 293 292 291 289 288 288 288 287 288 288 289 290 291 291 291 291 289 289 288 288 287 287 288 288 288 289 291 291 291 290
296 296 295 295 294 292 291 292 292 292 291 289 288 288 287 286 286 286 286 287 288 289 291 290 288 287 288 288 288 286 286 287 287 288 290 290 290 290
296 295 295 295 293 292 290 289 289 291 291 290 289 288 287 286 285 285 285 285 286 286 286 286 286 286 286 286 288 287 286 287 286 286 287 288 289 289
295 294 294 293 292 291 290 290 289 290 289 288 288 288 287 286 285 285 284 285 286 287 285 285 285 285 285 286 285 286 286 286 286 286 285 286 286 286
293 292 292 291 290 291 290 289 289 289 288 288 288 287 287 287 286 285 284 284 285 286 286 285 284 284 284 285 285 286 285 285 285 284 285 285 285 286
293 293 293 292 291 291 291 290 289 289 288 288 287 287 286 286 286 286 285 284 285 285 286 285 284 284 286 285 286 284 285 284 285 284 284 284 284 285
294 294 294 293 293 292 291 290 290 289 289 287 286 286 286 286 285 285 285 285 285 286 286 285 284 284 286 287 287 284 283 284 284 284 284 284 284 284
294 294 294 294 293 292 291 290 290 289 289 288 287 286 286 286 285 285 286 286 285 285 286 285 285 285 284 285 283 283 283 282 283 284 284 284 283 283
294 293 293 293 293 292 292 291 290 290 289 288 287 287 286 286 285 285 285 286 285 285 285 285 285 285 284 283 283 284 284 284 282 282 283 283 283 284
291 291 291 290 290 290 290 290 289 289 289 288 288 287 287 286 286 285 285 285 285 285 285 286 285 284 283 283 283 283 284 284 283 283 282 282 283 283